Latitude: N 50° 09' 49" Longitude: W 05° 11' 53" Elevation: 168m ASL

There are 24 visitors online

Adverts

<- Previous Day | Today | Next Day ->

All Data for 12 August 2017

Time
A - D
Temp
A - D
Dew Point
A - D
Humidity
A - D
Pressure
A - D
Wind
A - D
Wind Dir Gust
A - D
Rain Rate
A - D
Rain Total
00:00 16.1 16.0 99 1017.9 6.9 N 9.8 0.0 0.0
00:01 16.1 16.0 99 1017.8 6.9 NW 9.8 0.0 0.0
00:02 16.1 16.0 99 1018.0 10.7 WNW 10.7 0.0 0.0
00:03 16.1 16.0 99 1017.9 9.2 WNW 10.7 0.0 0.0
00:04 16.1 16.0 99 1018.0 9.2 WNW 10.7 0.0 0.0
00:05 16.1 16.0 99 1017.8 9.2 WNW 10.7 0.0 0.0
00:06 16.1 16.0 99 1017.9 9.2 WNW 10.7 0.0 0.0
00:07 16.1 16.0 99 1017.8 9.2 WNW 10.7 0.0 0.0
00:08 16.2 16.1 99 1017.9 6.0 S 10.7 0.0 0.0
00:09 16.1 16.0 99 1017.9 6.0 NW 10.7 0.0 0.0
00:10 16.1 16.0 99 1017.7 6.0 N 10.7 0.0 0.0
00:11 16.1 16.0 99 1017.8 6.0 N 10.7 0.0 0.0
00:12 16.1 16.0 99 1017.8 3.8 N 9.2 0.0 0.0
00:13 16.1 16.0 99 1017.8 7.6 S 9.2 0.0 0.0
00:13 16.1 16.0 99 1017.8 7.6 S 9.2 0.0 0.0
00:15 16.1 16.0 99 1017.7 4.5 N 9.2 0.0 0.0
00:16 16.1 16.0 99 1017.9 4.5 W 9.2 0.0 0.0
00:17 16.1 16.0 99 1017.8 13.0 N 13.0 0.0 0.0
00:18 16.1 16.0 99 1017.8 9.2 N 13.0 0.0 0.0
00:19 16.1 16.0 99 1017.8 10.7 N 13.0 0.0 0.0
00:20 16.1 16.0 99 1017.8 10.7 S 13.0 0.0 0.0
00:21 16.1 16.0 99 1018.0 6.0 W 13.0 0.0 0.0
00:22 16.1 16.0 99 1018.0 7.6 NW 13.0 0.0 0.0
00:23 16.1 16.0 99 1017.8 7.6 NW 13.0 0.0 0.0
00:24 16.1 16.0 99 1017.8 7.6 NW 13.0 0.0 0.0
00:25 16.1 16.0 99 1017.8 7.6 NW 13.0 0.0 0.0
00:26 16.1 16.0 99 1017.7 7.6 NW 13.0 0.0 0.0
00:27 16.1 16.0 99 1017.8 7.6 NW 10.7 0.0 0.0
00:28 16.1 16.0 99 1017.8 7.6 NW 10.7 0.0 0.0
00:29 16.1 16.0 99 1017.8 7.6 NW 10.7 0.0 0.0
00:29 16.1 16.0 99 1017.8 7.6 NW 10.7 0.0 0.0
00:31 16.1 16.0 99 1017.6 7.6 NW 10.7 0.0 0.0
00:32 16.1 16.0 99 1017.8 7.6 NW 10.7 0.0 0.0
00:33 16.1 16.0 99 1017.9 7.6 NW 10.7 0.0 0.0
00:34 16.1 16.0 99 1017.6 7.6 NW 10.7 0.0 0.0
00:35 16.1 16.0 99 1017.8 7.6 NW 10.7 0.0 0.0
00:36 16.1 16.0 99 1017.7 7.6 NW 10.7 0.0 0.0
00:37 16.1 16.0 99 1017.8 7.6 NW 10.7 0.0 0.0
00:38 16.1 16.0 99 1017.7 7.6 NW 10.7 0.0 0.0
00:38 16.1 16.0 99 1017.7 7.6 NW 10.7 0.0 0.0
00:39 16.1 16.0 99 1017.7 7.6 NW 10.7 0.0 0.0
00:41 16.1 16.0 99 1017.7 7.6 NW 10.7 0.0 0.0
00:42 16.1 16.0 99 1017.9 7.6 NW 10.7 0.0 0.0
00:43 16.1 16.0 99 1017.8 7.6 NW 10.7 0.0 0.0
00:44 16.1 16.0 99 1017.7 7.6 NW 10.7 0.0 0.0
00:45 16.1 16.0 99 1017.8 7.6 NW 10.7 0.0 0.0
00:46 16.1 16.0 99 1017.8 7.6 NW 10.7 0.0 0.0
00:47 16.1 16.0 99 1017.9 7.6 NW 10.7 0.0 0.0
00:48 16.1 16.0 99 1017.9 7.6 NW 10.7 0.0 0.0
00:50 16.1 16.0 99 1017.8 7.6 NW 10.7 0.0 0.0
00:51 16.1 16.0 99 1017.8 7.6 NW 10.7 0.0 0.0
00:52 16.1 16.0 99 1017.7 7.6 NW 10.7 0.0 0.0
00:52 16.1 16.0 99 1017.7 7.6 NW 10.7 0.0 0.0
00:53 16.1 16.0 99 1017.7 7.6 NW 10.7 0.0 0.0
00:54 16.1 16.0 99 1017.6 7.6 NW 10.7 0.0 0.0
00:55 16.1 16.0 99 1017.6 7.6 NW 10.7 0.0 0.0
00:56 16.1 16.0 99 1017.5 7.6 NW 10.7 0.0 0.0
00:57 16.1 16.0 99 1017.7 7.6 NW 10.7 0.0 0.0
00:58 16.1 16.0 99 1017.7 7.6 NW 10.7 0.0 0.0
00:59 16.1 16.0 99 1017.6 7.6 NW 10.7 0.0 0.0
01:00 16.1 16.0 99 1017.6 7.6 NW 10.7 0.0 0.0
01:01 16.1 16.0 99 1017.6 7.6 NW 10.7 0.0 0.0
01:02 16.1 16.0 99 1017.6 7.6 NW 10.7 0.0 0.0
01:03 16.1 16.0 99 1017.6 7.6 NW 10.7 0.0 0.0
01:05 16.1 16.0 99 1017.6 7.6 NW 10.7 0.0 0.0
01:06 16.1 16.0 99 1017.6 7.6 NW 10.7 0.0 0.0
01:07 16.1 16.0 99 1017.5 7.6 NW 10.7 0.0 0.0
01:08 16.1 16.0 99 1017.6 7.6 NW 10.7 0.0 0.0
01:09 16.1 16.0 99 1017.6 7.6 NW 10.7 0.0 0.0
01:10 16.1 16.0 99 1017.5 7.6 NW 10.7 0.0 0.0
01:11 16.1 16.0 99 1017.5 7.6 NW 10.7 0.0 0.0
01:12 16.1 16.0 99 1017.6 7.6 NW 10.7 0.0 0.0
01:13 16.1 16.0 99 1017.7 7.6 NW 10.7 0.0 0.0
01:14 16.1 16.0 99 1017.7 7.6 NW 10.7 0.0 0.0
01:15 16.1 16.0 99 1017.5 7.6 NW 10.7 0.0 0.0
01:16 16.1 16.0 99 1017.6 7.6 NW 10.7 0.0 0.0
01:16 16.1 16.0 99 1017.6 7.6 NW 10.7 0.0 0.0
01:17 16.1 16.0 99 1017.5 7.6 NW 10.7 0.0 0.0
01:18 16.1 16.0 99 1017.6 7.6 NW 10.7 0.0 0.0
01:19 16.1 16.0 99 1017.8 7.6 NW 10.7 0.0 0.0
01:20 16.1 16.0 99 1017.7 7.6 NW 10.7 0.0 0.0
01:21 16.1 16.0 99 1017.7 7.6 NW 10.7 0.0 0.0
01:22 16.1 16.0 99 1017.6 7.6 NW 10.7 0.0 0.0
01:23 16.1 16.0 99 1017.7 7.6 NW 10.7 0.0 0.0
01:24 16.1 16.0 99 1017.5 7.6 NW 10.7 0.0 0.0
01:25 16.1 16.0 99 1017.7 7.6 NW 10.7 0.0 0.0
01:26 16.1 16.0 99 1017.8 7.6 NW 10.7 0.0 0.0
01:27 16.1 16.0 99 1017.7 7.6 NW 10.7 0.0 0.0
01:28 16.1 16.0 99 1017.7 7.6 NW 10.7 0.0 0.0
01:29 16.1 16.0 99 1017.7 7.6 NW 10.7 0.0 0.0
01:30 16.1 16.0 99 1017.7 7.6 NW 10.7 0.0 0.0
01:32 16.1 16.0 99 1017.7 7.6 NW 10.7 0.0 0.0
01:33 16.1 16.0 99 1017.6 7.6 NW 10.7 0.0 0.0
01:34 16.1 16.0 99 1017.6 7.6 NW 10.7 0.0 0.0
01:35 16.1 16.0 99 1017.6 7.6 NW 10.7 0.0 0.0
01:36 16.1 16.0 99 1017.5 7.6 NW 10.7 0.0 0.0
01:37 16.1 16.0 99 1017.5 7.6 NW 10.7 0.0 0.0
01:38 16.1 16.0 99 1017.5 7.6 NW 10.7 0.0 0.0
01:39 16.1 16.0 99 1017.5 7.6 NW 10.7 0.0 0.0
01:40 16.1 16.0 99 1017.6 7.6 NW 10.7 0.0 0.0
01:41 16.1 16.0 99 1017.5 7.6 NW 10.7 0.0 0.0
01:42 16.1 16.0 99 1017.4 7.6 NW 10.7 0.0 0.0
01:42 16.1 16.0 99 1017.4 7.6 NW 10.7 0.0 0.0
01:43 16.1 16.0 99 1017.5 7.6 NW 10.7 0.0 0.0
01:44 16.1 16.0 99 1017.4 7.6 NW 10.7 0.0 0.0
01:45 16.1 16.0 99 1017.5 7.6 NW 10.7 0.0 0.0
01:46 16.1 16.0 99 1017.3 7.6 NW 10.7 0.0 0.0
01:47 16.1 16.0 99 1017.4 7.6 NW 10.7 0.0 0.0
01:48 16.1 16.0 99 1017.5 7.6 NW 10.7 0.0 0.0
01:49 16.1 16.0 99 1017.4 7.6 NW 10.7 0.0 0.0
01:50 16.1 16.0 99 1017.3 7.6 NW 10.7 0.0 0.0
01:51 16.1 16.0 99 1017.5 7.6 NW 10.7 0.0 0.0
01:52 16.1 16.0 99 1017.5 7.6 NW 10.7 0.0 0.0
01:53 16.1 16.0 99 1017.4 7.6 NW 10.7 0.0 0.0
01:55 16.1 16.0 99 1017.5 7.6 NW 10.7 0.0 0.0
01:56 16.1 16.0 99 1017.4 7.6 NW 10.7 0.0 0.0
01:57 16.1 16.0 99 1017.5 7.6 NW 10.7 0.0 0.0
01:58 16.1 16.0 99 1017.4 7.6 NW 10.7 0.0 0.0
01:58 16.1 16.0 99 1017.4 7.6 NW 10.7 0.0 0.0
01:59 16.1 16.0 99 1017.4 7.6 NW 10.7 0.0 0.0
02:00 16.1 16.0 99 1017.4 7.6 NW 10.7 0.0 0.0
02:01 16.1 16.0 99 1017.4 7.6 NW 10.7 0.0 0.0
02:02 16.1 16.0 99 1017.4 7.6 NW 10.7 0.0 0.0
02:03 16.1 16.0 99 1017.4 7.6 NW 10.7 0.0 0.0
02:04 16.1 16.0 99 1017.4 7.6 NW 10.7 0.0 0.0
02:05 16.1 16.0 99 1017.2 7.6 NW 10.7 0.0 0.0
02:06 16.1 16.0 99 1017.3 7.6 NW 10.7 0.0 0.0
02:08 16.1 16.0 99 1017.3 7.6 NW 10.7 0.0 0.0
02:09 16.1 16.0 99 1017.2 7.6 NW 10.7 0.0 0.0
02:10 16.1 16.0 99 1017.2 7.6 NW 10.7 0.0 0.0
02:11 16.1 16.0 99 1017.1 7.6 NW 10.7 0.0 0.0
02:12 16.1 16.0 99 1017.1 7.6 NW 10.7 0.0 0.0
02:13 16.1 16.0 99 1017.2 7.6 NW 10.7 0.0 0.0
02:14 16.1 16.0 99 1017.2 7.6 NW 10.7 0.0 0.0
02:15 16.1 16.0 99 1017.1 7.6 NW 10.7 0.0 0.0
02:16 16.1 16.0 99 1017.2 7.6 NW 10.7 0.0 0.0
02:17 16.1 16.0 99 1017.1 7.6 NW 10.7 0.0 0.0
02:18 16.1 16.0 99 1017.2 7.6 NW 10.7 0.0 0.0
02:18 16.1 16.0 99 1017.2 7.6 NW 10.7 0.0 0.0
02:19 16.1 16.0 99 1017.1 7.6 NW 10.7 0.0 0.0
02:20 16.1 16.0 99 1017.1 7.6 NW 10.7 0.0 0.0
02:21 16.1 16.0 99 1017.2 7.6 NW 10.7 0.0 0.0
02:22 16.1 16.0 99 1017.2 7.6 NW 10.7 0.0 0.0
02:23 16.1 16.0 99 1017.1 7.6 NW 10.7 0.0 0.0
02:24 16.1 16.0 99 1017.1 7.6 NW 10.7 0.0 0.0
02:25 16.1 16.0 99 1017.1 7.6 NW 10.7 0.0 0.0
02:26 16.1 16.0 99 1017.2 7.6 NW 10.7 0.0 0.0
02:27 16.1 16.0 99 1017.2 7.6 NW 10.7 0.0 0.0
02:28 16.1 16.0 99 1017.1 7.6 NW 10.7 0.0 0.0
02:29 16.1 16.0 99 1017.0 7.6 NW 10.7 0.0 0.0
02:30 16.1 16.0 99 1017.0 7.6 NW 10.7 0.0 0.0
02:31 16.1 16.0 99 1017.2 7.6 NW 10.7 0.0 0.0
02:32 16.1 16.0 99 1017.0 7.6 NW 10.7 0.0 0.0
02:33 16.1 16.0 99 1017.0 7.6 NW 10.7 0.0 0.0
02:34 16.1 16.0 99 1017.0 7.6 NW 10.7 0.0 0.0
02:35 16.1 16.0 99 1017.1 7.6 NW 10.7 0.0 0.0
02:36 16.1 16.0 99 1017.1 7.6 NW 10.7 0.0 0.0
02:37 16.1 16.0 99 1017.1 7.6 NW 10.7 0.0 0.0
02:38 16.1 16.0 99 1016.9 7.6 NW 10.7 0.0 0.0
02:39 16.1 16.0 99 1017.0 7.6 NW 10.7 0.0 0.0
02:41 16.1 16.0 99 1017.0 7.6 NW 10.7 0.0 0.0
02:42 16.1 16.0 99 1017.0 7.6 NW 10.7 0.0 0.0
02:43 16.1 16.0 99 1017.0 7.6 NW 10.7 0.0 0.0
02:44 16.1 16.0 99 1016.9 7.6 NW 10.7 0.0 0.0
02:45 16.1 16.0 99 1016.9 7.6 NW 10.7 0.0 0.0
02:46 16.1 16.0 99 1016.9 7.6 NW 10.7 0.0 0.0
02:47 16.1 16.0 99 1016.9 7.6 NW 10.7 0.0 0.0
02:48 16.1 16.0 99 1016.9 7.6 NW 10.7 0.0 0.0
02:49 16.1 16.0 99 1016.9 7.6 NW 10.7 0.0 0.0
02:50 16.1 16.0 99 1016.9 7.6 NW 10.7 0.0 0.0
02:51 16.1 16.0 99 1016.9 7.6 NW 10.7 0.0 0.0
02:52 16.1 16.0 99 1016.8 7.6 NW 10.7 0.0 0.0
02:53 16.1 16.0 99 1016.9 7.6 NW 10.7 0.0 0.0
02:53 16.1 16.0 99 1016.9 7.6 NW 10.7 0.0 0.0
02:54 16.1 16.0 99 1016.9 7.6 NW 10.7 0.0 0.0
02:55 16.1 16.0 99 1016.8 7.6 NW 10.7 0.0 0.0
02:56 16.1 16.0 99 1016.9 7.6 NW 10.7 0.0 0.0
02:57 16.1 16.0 99 1016.9 7.6 NW 10.7 0.0 0.0
02:58 16.1 16.0 99 1016.9 7.6 NW 10.7 0.0 0.0
02:59 16.1 16.0 99 1016.9 7.6 NW 10.7 0.0 0.0
03:00 16.0 15.9 99 1016.9 9.2 WSW 9.2 6.8 0.6
03:01 16.0 15.9 99 1016.9 9.2 WSW 9.2 6.8 0.6
03:02 16.0 15.9 99 1016.8 9.2 WSW 9.2 6.8 0.6
03:03 16.0 15.9 99 1017.0 9.2 WSW 9.2 6.8 0.6
03:04 16.0 15.9 99 1016.9 9.2 WSW 9.2 6.8 0.6
03:05 16.0 15.9 99 1017.0 9.2 WSW 9.2 0.0 0.6
03:06 16.0 15.9 99 1017.1 9.2 WSW 9.2 0.0 0.6
03:07 16.0 15.9 99 1017.1 9.2 WSW 9.2 0.0 0.6
03:08 16.0 15.9 99 1016.9 9.2 WSW 9.2 0.0 0.6
03:09 16.0 15.9 99 1017.0 9.2 WSW 9.2 0.0 0.6
03:10 16.0 15.9 99 1016.9 9.2 WSW 9.2 0.0 0.6
03:11 16.0 15.9 99 1016.9 9.2 WSW 9.2 0.0 0.6
03:12 16.0 15.9 99 1016.9 9.2 WSW 9.2 0.0 0.6
03:13 16.0 15.9 99 1017.0 9.2 WSW 9.2 0.0 0.6
03:14 16.0 15.9 99 1017.0 9.2 WSW 9.2 0.0 0.6
03:15 16.0 15.9 99 1017.1 9.2 WSW 9.2 0.0 0.6
03:16 16.0 15.9 99 1016.9 9.2 WSW 9.2 0.0 0.6
03:17 16.0 15.9 99 1017.0 9.2 WSW 9.2 0.0 0.6
03:18 16.0 15.9 99 1017.0 9.2 WSW 9.2 0.0 0.6
03:19 16.0 15.9 99 1017.0 9.2 WSW 9.2 0.0 0.6
03:20 16.0 15.9 99 1017.0 9.2 WSW 9.2 0.0 0.6
03:21 16.0 15.9 99 1017.0 9.2 WSW 9.2 0.0 0.6
03:22 16.0 15.9 99 1016.9 9.2 WSW 9.2 0.0 0.6
03:23 16.0 15.9 99 1017.1 9.2 WSW 9.2 0.0 0.6
03:24 16.0 15.9 99 1016.9 9.2 WSW 9.2 0.0 0.6
03:25 16.0 15.9 99 1017.0 9.2 WSW 9.2 0.0 0.6
03:26 16.0 15.9 99 1017.0 9.2 WSW 9.2 0.0 0.6
03:27 16.0 15.9 99 1016.8 9.2 WSW 9.2 0.0 0.6
03:28 16.0 15.9 99 1016.9 9.2 WSW 9.2 0.0 0.6
03:29 16.0 15.9 99 1016.8 9.2 WSW 9.2 0.0 0.6
03:30 16.0 15.9 99 1017.0 9.2 WSW 9.2 0.0 0.6
03:32 16.0 15.9 99 1017.0 9.2 WSW 9.2 0.0 0.6
03:33 16.0 15.9 99 1016.9 9.2 WSW 9.2 0.0 0.6
03:34 16.0 15.9 99 1016.9 9.2 WSW 9.2 0.0 0.6
03:35 16.0 15.9 99 1016.9 9.2 WSW 9.2 0.0 0.6
03:36 16.0 15.9 99 1017.0 9.2 WSW 9.2 0.0 0.6
03:37 16.0 15.9 99 1016.8 9.2 WSW 9.2 0.0 0.6
03:38 16.0 15.9 99 1016.9 9.2 WSW 9.2 0.0 0.6
03:39 16.0 15.9 99 1016.8 9.2 WSW 9.2 0.0 0.6
03:40 16.0 15.9 99 1016.8 9.2 WSW 9.2 0.0 0.6
03:41 16.0 15.9 99 1016.8 9.2 WSW 9.2 0.0 0.6
03:42 16.0 15.9 99 1017.0 9.2 WSW 9.2 0.0 0.6
03:43 16.0 15.9 99 1016.9 9.2 WSW 9.2 0.0 0.6
03:44 16.0 15.9 99 1016.9 9.2 WSW 9.2 0.0 0.6
03:45 16.0 15.9 99 1016.9 9.2 WSW 9.2 0.0 0.6
03:46 16.0 15.9 99 1016.8 9.2 WSW 9.2 0.0 0.6
03:47 16.0 15.9 99 1016.9 9.2 WSW 9.2 0.0 0.6
03:48 16.0 15.9 99 1016.8 9.2 WSW 9.2 0.0 0.6
03:49 16.0 15.9 99 1016.8 9.2 WSW 9.2 0.0 0.6
03:50 16.0 15.9 99 1016.7 9.2 WSW 9.2 0.0 0.6
03:51 16.0 15.9 99 1017.0 9.2 WSW 9.2 0.0 0.6
03:52 16.0 15.9 99 1016.8 9.2 WSW 9.2 0.0 0.6
03:53 16.0 15.9 99 1016.8 9.2 WSW 9.2 0.0 0.6
03:54 16.0 15.9 99 1016.8 9.2 WSW 9.2 0.0 0.6
03:55 16.0 15.9 99 1016.7 9.2 WSW 9.2 0.0 0.6
03:55 16.0 15.9 99 1016.7 9.2 WSW 9.2 0.0 0.6
03:56 16.0 15.9 99 1016.9 9.2 WSW 9.2 0.0 0.6
03:57 16.0 15.9 99 1016.8 9.2 WSW 9.2 0.0 0.6
03:58 16.0 15.9 99 1016.8 9.2 WSW 9.2 0.0 0.6
03:59 16.0 15.9 99 1016.6 9.2 WSW 9.2 0.0 0.6
04:00 16.0 15.9 99 1016.7 9.2 WSW 9.2 0.0 0.6
04:01 16.0 15.9 99 1016.8 9.2 WSW 9.2 0.0 0.6
04:02 16.0 15.9 99 1016.8 9.2 WSW 9.2 0.0 0.6
04:03 16.0 15.9 99 1016.7 9.2 WSW 9.2 0.0 0.6
04:04 16.0 15.9 99 1016.8 9.2 WSW 9.2 0.0 0.6
04:05 16.0 15.9 99 1016.7 9.2 WSW 9.2 0.0 0.6
04:06 16.0 15.9 99 1016.8 9.2 WSW 9.2 0.0 0.6
04:07 16.0 15.9 99 1016.8 9.2 WSW 9.2 0.0 0.6
04:08 16.0 15.9 99 1016.8 9.2 WSW 9.2 0.0 0.6
04:09 16.0 15.9 99 1016.7 9.2 WSW 9.2 0.0 0.6
04:10 16.0 15.9 99 1016.9 9.2 WSW 9.2 0.0 0.6
04:11 16.0 15.9 99 1016.8 9.2 WSW 9.2 0.0 0.6
04:12 16.0 15.9 99 1016.9 9.2 WSW 9.2 0.0 0.6
04:13 16.0 15.9 99 1016.8 9.2 WSW 9.2 0.0 0.6
04:14 16.0 15.9 99 1016.9 9.2 WSW 9.2 0.0 0.6
04:15 16.0 15.9 99 1016.8 9.2 WSW 9.2 0.0 0.6
04:16 16.0 15.9 99 1016.9 9.2 WSW 9.2 0.0 0.6
04:17 16.0 15.9 99 1016.8 9.2 WSW 9.2 0.0 0.6
04:18 16.0 15.9 99 1017.0 9.2 WSW 9.2 0.0 0.6
04:19 16.0 15.9 99 1016.9 9.2 WSW 9.2 0.0 0.6
04:20 16.0 15.9 99 1017.1 9.2 WSW 9.2 0.0 0.6
04:21 16.0 15.9 99 1016.9 9.2 WSW 9.2 0.0 0.6
04:22 16.0 15.9 99 1016.9 9.2 WSW 9.2 0.0 0.6
04:23 16.0 15.9 99 1016.9 9.2 WSW 9.2 0.0 0.6
04:24 16.0 15.9 99 1017.0 9.2 WSW 9.2 0.0 0.6
04:25 16.0 15.9 99 1016.9 9.2 WSW 9.2 0.0 0.6
04:26 16.0 15.9 99 1016.9 9.2 WSW 9.2 0.0 0.6
04:27 16.0 15.9 99 1016.9 9.2 WSW 9.2 0.0 0.6
04:28 16.0 15.9 99 1017.0 9.2 WSW 9.2 0.0 0.6
04:29 16.0 15.9 99 1016.8 9.2 WSW 9.2 0.0 0.6
04:30 16.0 15.9 99 1016.9 9.2 WSW 9.2 0.0 0.6
04:31 16.0 15.9 99 1016.9 9.2 WSW 9.2 0.0 0.6
04:32 16.0 15.9 99 1016.9 9.2 WSW 9.2 0.0 0.6
04:33 16.0 15.9 99 1016.9 9.2 WSW 9.2 0.0 0.6
04:34 16.0 15.9 99 1016.9 9.2 WSW 9.2 0.0 0.6
04:35 16.0 15.9 99 1016.8 9.2 WSW 9.2 0.0 0.6
04:37 16.0 15.9 99 1016.7 9.2 WSW 9.2 0.0 0.6
04:38 16.0 15.9 99 1016.8 9.2 WSW 9.2 0.0 0.6
04:39 16.0 15.9 99 1016.9 9.2 WSW 9.2 0.0 0.6
04:40 16.0 15.9 99 1016.9 9.2 WSW 9.2 0.0 0.6
04:41 16.0 15.9 99 1016.8 9.2 WSW 9.2 0.0 0.6
04:42 16.0 15.9 99 1016.7 9.2 WSW 9.2 0.0 0.6
04:43 16.0 15.9 99 1016.7 9.2 WSW 9.2 0.0 0.6
04:44 16.0 15.9 99 1016.7 9.2 WSW 9.2 0.0 0.6
04:45 16.0 15.9 99 1016.7 9.2 WSW 9.2 0.0 0.6
04:46 14.3 14.2 99 1016.6 6.9 W 6.9 0.0 0.8
04:47 14.3 14.2 99 1016.7 6.9 W 6.9 3.0 0.8
04:48 14.3 14.2 99 1016.7 6.9 W 6.9 3.0 0.8
04:49 14.3 14.2 99 1016.6 6.9 W 6.9 3.0 0.8
04:50 14.3 14.2 99 1016.7 6.9 W 6.9 3.0 0.8
04:51 14.3 14.2 99 1016.8 6.9 W 6.9 3.0 0.8
04:52 14.3 14.2 99 1016.7 6.9 W 6.9 0.0 0.8
04:53 14.3 14.2 99 1016.7 6.9 W 6.9 0.0 0.8
04:54 14.3 14.2 99 1016.7 6.9 W 6.9 0.0 0.8
04:55 14.3 14.2 99 1016.7 6.9 W 6.9 0.0 0.8
04:56 14.3 14.2 99 1016.7 6.9 W 6.9 0.0 0.8
04:57 14.3 14.2 99 1016.8 6.9 W 6.9 0.0 0.8
04:57 14.3 14.2 99 1016.8 6.9 W 6.9 0.0 0.8
04:58 14.3 14.2 99 1016.7 6.9 W 6.9 0.0 0.8
04:59 14.3 14.2 99 1016.8 6.9 W 6.9 0.0 0.8
05:00 14.3 14.2 99 1016.6 6.9 W 6.9 0.0 0.8
05:01 14.3 14.2 99 1016.7 6.9 W 6.9 0.0 0.8
05:02 14.3 14.2 99 1016.8 6.9 W 6.9 0.0 0.8
05:03 14.3 14.2 99 1016.7 6.9 W 6.9 0.0 0.8
05:04 14.3 14.2 99 1016.7 6.9 W 6.9 0.0 0.8
05:05 14.3 14.2 99 1016.7 6.9 W 6.9 0.0 0.8
05:06 14.3 14.2 99 1016.7 6.9 W 6.9 0.0 0.8
05:07 14.3 14.2 99 1016.7 6.9 W 6.9 0.0 0.8
05:08 14.3 14.2 99 1016.6 6.9 W 6.9 0.0 0.8
05:10 14.3 14.2 99 1016.8 6.9 W 6.9 0.0 0.8
05:11 14.3 14.2 99 1016.7 6.9 W 6.9 0.0 0.8
05:12 14.3 14.2 99 1016.8 6.9 W 6.9 0.0 0.8
05:13 14.3 14.2 99 1016.8 6.9 W 6.9 0.0 0.8
05:14 14.0 13.9 99 1016.7 13.0 WNW 13.0 0.0 0.8
05:14 14.0 13.9 99 1016.7 13.0 WNW 13.0 0.0 0.8
05:15 14.0 13.9 99 1016.6 6.9 W 13.0 0.0 0.8
05:16 14.0 13.9 99 1016.7 6.9 W 13.0 0.0 0.8
05:17 14.0 13.9 99 1016.6 6.9 W 13.0 0.0 0.8
05:18 14.0 13.9 99 1016.7 6.9 W 13.0 0.0 0.8
05:19 14.0 13.9 99 1016.6 6.9 W 13.0 0.0 0.8
05:20 14.0 13.9 99 1016.6 6.9 W 13.0 0.0 0.8
05:21 13.9 13.8 99 1016.6 2.2 N 13.0 0.0 0.8
05:22 13.9 13.8 99 1016.6 3.1 SW 13.0 0.0 0.8
05:23 13.9 13.8 99 1016.6 3.1 SW 13.0 0.0 0.8
05:24 13.9 13.8 99 1016.6 3.1 NW 13.0 0.0 0.8
05:25 13.9 13.8 99 1016.7 3.1 NW 6.9 0.0 0.8
05:26 13.9 13.8 99 1016.6 3.1 NW 6.9 0.0 0.8
05:27 13.9 13.8 99 1016.6 3.1 NW 6.9 0.0 0.8
05:28 13.9 13.8 99 1016.6 3.1 NW 6.9 0.0 0.8
05:29 13.8 13.7 99 1016.6 6.9 N 6.9 0.0 0.8
05:30 13.8 13.7 99 1016.7 6.9 N 6.9 0.0 0.8
05:31 13.8 13.7 99 1016.5 7.6 E 7.6 0.0 0.8
05:32 13.8 13.7 99 1016.5 7.6 E 7.6 0.0 0.8
05:33 13.8 13.7 99 1016.7 6.9 NW 7.6 0.0 0.8
05:34 13.8 13.7 99 1016.7 6.9 NW 7.6 0.0 0.8
05:35 13.8 13.7 99 1016.7 7.6 W 7.6 0.0 0.8
05:36 13.8 13.7 99 1016.8 7.6 W 7.6 0.0 0.8
05:37 13.8 13.7 99 1016.8 4.5 W 7.6 0.0 0.8
05:38 13.8 13.7 99 1016.8 4.5 W 7.6 0.0 0.8
05:39 13.8 13.7 99 1017.0 4.5 NW 7.6 0.0 0.8
05:40 13.8 13.7 99 1016.7 4.5 NW 7.6 0.0 0.8
05:41 13.8 13.7 99 1017.0 4.5 NW 7.6 0.0 0.8
05:42 13.8 13.7 99 1016.9 4.5 NW 7.6 0.0 0.8
05:43 13.8 13.7 99 1017.0 4.5 NW 7.6 0.0 0.8
05:44 13.7 13.6 99 1017.0 7.6 WSW 7.6 0.0 0.8
05:45 13.7 13.6 99 1016.8 3.8 W 7.6 0.0 0.8
05:46 13.7 13.6 99 1017.0 9.2 W 9.2 0.0 0.8
05:47 13.6 13.5 99 1017.0 9.2 W 9.2 0.0 0.8
05:48 13.7 13.6 99 1017.1 6.9 WSW 9.2 0.0 0.8
05:49 13.7 13.6 99 1016.9 6.9 WSW 9.2 0.0 0.8
05:50 13.7 13.6 99 1016.9 6.9 WSW 9.2 0.0 0.8
05:51 13.7 13.6 99 1016.9 6.9 WSW 9.2 0.0 0.8
05:52 13.7 13.6 99 1016.9 6.9 WSW 9.2 0.0 0.8
05:53 13.7 13.6 99 1017.0 6.9 WSW 9.2 0.0 0.8
05:54 13.7 13.6 99 1017.1 6.9 WSW 9.2 0.0 0.8
05:55 13.7 13.6 99 1017.1 6.9 WSW 9.2 0.0 0.8
05:56 13.7 13.6 99 1017.0 6.9 WSW 9.2 0.0 0.8
05:57 13.7 13.6 99 1017.1 6.9 WSW 9.2 0.0 0.8
05:58 13.7 13.6 99 1017.1 6.9 WSW 9.2 0.0 0.8
05:59 13.7 13.6 99 1017.0 6.9 WSW 9.2 0.0 0.8
06:00 13.7 13.6 99 1017.2 6.9 WSW 9.2 0.0 0.8
06:01 13.7 13.6 99 1017.2 6.9 WSW 9.2 0.0 0.8
06:02 13.7 13.6 99 1017.2 6.9 WSW 9.2 0.0 0.8
06:03 13.7 13.6 99 1017.2 6.9 WSW 9.2 0.0 0.8
06:04 13.7 13.6 99 1017.2 6.9 WSW 9.2 0.0 0.8
06:05 13.7 13.6 99 1017.2 6.9 WSW 9.2 0.0 0.8
06:06 13.7 13.6 99 1017.3 6.9 WSW 9.2 0.0 0.8
06:07 13.7 13.6 99 1017.1 6.9 WSW 9.2 0.0 0.8
06:08 13.7 13.6 99 1017.1 6.9 WSW 9.2 0.0 0.8
06:09 13.7 13.6 99 1017.2 6.9 WSW 9.2 0.0 0.8
06:09 13.7 13.6 99 1017.2 6.9 WSW 9.2 0.0 0.8
06:11 13.7 13.6 99 1017.1 6.9 WSW 9.2 0.0 0.8
06:12 13.7 13.6 99 1017.3 6.9 WSW 9.2 0.0 0.8
06:13 13.2 13.1 99 1017.2 1.6 WSW 2.2 0.0 0.8
06:14 13.2 13.1 99 1017.3 1.6 WSW 2.2 0.0 0.8
06:15 13.1 13.0 99 1017.3 2.2 W 2.2 0.0 0.8
06:16 13.1 13.0 99 1017.2 0.0 W 2.2 0.0 0.8
06:17 13.1 13.0 99 1017.3 0.0 W 2.2 0.0 0.8
06:18 13.1 13.0 99 1017.3 0.0 W 2.2 0.0 0.8
06:19 13.1 13.0 99 1017.2 0.0 W 2.2 0.0 0.8
06:20 13.0 12.9 99 1017.3 3.8 N 3.8 0.0 0.8
06:21 13.0 12.9 99 1017.3 0.0 W 3.8 0.0 0.8
06:22 13.0 12.9 99 1017.2 0.0 W 3.8 0.0 0.8
06:23 13.0 12.9 99 1017.3 4.5 W 4.5 0.0 0.8
06:24 13.0 12.9 99 1017.3 4.5 WSW 4.5 0.0 0.8
06:25 13.0 12.9 99 1017.3 2.2 WSW 4.5 0.0 0.8
06:26 13.0 12.9 99 1017.3 2.2 WSW 4.5 0.0 0.8
06:27 13.0 12.9 99 1017.5 2.2 WSW 4.5 0.0 0.8
06:28 13.0 12.9 99 1017.4 2.2 WSW 4.5 0.0 0.8
06:29 13.0 12.9 99 1017.3 2.2 WSW 4.5 0.0 0.8
06:30 13.0 12.9 99 1017.3 2.2 WSW 4.5 0.0 0.8
06:32 13.0 12.9 99 1017.4 2.2 WSW 4.5 0.0 0.8
06:33 13.0 12.9 99 1017.4 2.2 WSW 4.5 0.0 0.8
06:34 13.0 12.9 99 1017.3 2.2 WSW 4.5 0.0 0.8
06:35 13.0 12.9 99 1017.3 2.2 WSW 4.5 0.0 0.8
06:36 13.0 12.9 99 1017.2 2.2 WSW 4.5 0.0 0.8
06:37 13.0 12.9 99 1017.3 2.2 WSW 4.5 0.0 0.8
06:38 13.0 12.9 99 1017.4 2.2 WSW 4.5 0.0 0.8
06:39 13.0 12.9 99 1017.5 2.2 WSW 4.5 0.0 0.8
06:40 13.0 12.9 99 1017.4 2.2 WSW 4.5 0.0 0.8
06:41 13.0 12.9 99 1017.5 2.2 WSW 4.5 0.0 0.8
06:42 13.0 12.9 99 1017.5 2.2 WSW 4.5 0.0 0.8
06:43 13.0 12.9 99 1017.3 2.2 WSW 4.5 0.0 0.8
06:44 13.0 12.9 99 1017.4 2.2 WSW 4.5 0.0 0.8
06:45 13.0 12.9 99 1017.2 2.2 WSW 4.5 0.0 0.8
06:46 13.2 13.1 99 1017.4 0.7 WSW 0.7 0.0 0.8
06:47 13.2 13.1 99 1017.5 0.7 WSW 0.7 0.0 0.8
06:48 13.2 13.1 99 1017.6 0.7 WSW 0.7 0.0 0.8
06:49 13.2 13.1 99 1017.5 0.7 WSW 0.7 0.0 0.8
06:50 13.2 13.1 99 1017.6 0.7 WSW 0.7 0.0 0.8
06:51 13.3 13.2 99 1017.4 6.9 WSW 6.9 0.0 0.8
06:52 13.3 13.2 99 1017.6 6.9 WSW 6.9 0.0 0.8
06:53 13.3 13.2 99 1017.6 6.9 WSW 6.9 0.0 0.8
06:53 13.3 13.2 99 1017.6 6.9 WSW 6.9 0.0 0.8
06:54 13.4 13.3 99 1017.6 3.1 W 6.9 0.0 0.8
06:55 13.4 13.3 99 1017.4 5.4 WSW 6.9 0.0 0.8
06:56 13.4 13.3 99 1017.4 2.2 WSW 6.9 0.0 0.8
06:57 13.4 13.3 99 1017.5 2.2 WSW 6.9 0.0 0.8
06:58 13.4 13.3 99 1017.4 2.2 WSW 6.9 0.0 0.8
06:59 13.4 13.3 99 1017.6 2.2 WSW 6.9 0.0 0.8
07:00 13.4 13.3 99 1017.6 2.2 WSW 6.9 0.0 0.8
07:01 13.4 13.3 99 1017.6 2.2 WSW 6.9 0.0 0.8
07:02 13.4 13.3 99 1017.5 2.2 WSW 6.9 0.0 0.8
07:03 13.4 13.3 99 1017.5 2.2 WSW 5.4 0.0 0.8
07:04 13.4 13.3 99 1017.3 2.2 WSW 5.4 0.0 0.8
07:05 13.4 13.3 99 1017.6 2.2 WSW 5.4 0.0 0.8
07:06 13.4 13.3 99 1017.6 2.2 WSW 2.2 0.0 0.8
07:07 13.4 13.3 99 1017.7 2.2 WSW 2.2 0.0 0.8
07:08 13.4 13.3 99 1017.6 2.2 WSW 2.2 0.0 0.8
07:09 13.7 13.6 99 1017.5 3.8 WSW 3.8 0.0 0.8
07:10 13.7 13.6 99 1017.5 3.8 WSW 3.8 0.0 0.8
07:11 13.7 13.6 99 1017.6 3.8 WSW 3.8 0.0 0.8
07:12 13.7 13.6 99 1017.6 3.8 WSW 3.8 0.0 0.8
07:13 13.7 13.6 99 1017.5 3.8 WSW 3.8 0.0 0.8
07:14 13.7 13.6 99 1017.7 3.8 WSW 3.8 0.0 0.8
07:15 13.7 13.6 99 1017.5 3.8 WSW 3.8 0.0 0.8
07:16 13.7 13.6 99 1017.5 3.8 WSW 3.8 0.0 0.8
07:17 13.8 13.7 99 1017.7 0.7 WSW 3.8 0.0 0.8
07:18 13.8 13.7 99 1017.6 0.7 WSW 3.8 0.0 0.8
07:19 13.9 13.8 99 1017.7 3.1 WSW 3.8 0.0 0.8
07:20 13.9 13.8 99 1017.7 4.5 WSW 4.5 0.0 0.8
07:22 13.9 13.8 99 1017.9 5.4 WSW 5.4 0.0 0.8
07:23 13.9 13.8 99 1017.8 4.5 W 5.4 0.0 0.8
07:24 13.9 13.8 99 1017.8 7.6 W 7.6 0.0 0.8
07:25 13.9 13.8 99 1017.7 7.6 W 7.6 0.0 0.8
07:26 13.9 13.8 99 1017.7 6.9 WSW 7.6 0.0 0.8
07:27 13.9 13.8 99 1017.7 7.6 W 7.6 0.0 0.8
07:28 13.9 13.8 99 1018.0 10.7 W 10.7 0.0 0.8
07:29 13.9 13.8 99 1017.9 6.0 W 10.7 0.0 0.8
07:30 14.0 13.9 99 1017.9 6.9 NW 10.7 0.0 0.8
07:31 14.0 13.9 99 1017.9 5.4 WSW 10.7 0.0 0.8
07:32 14.0 13.9 99 1017.9 9.8 W 10.7 0.0 0.8
07:33 14.0 13.9 99 1017.8 9.2 WSW 10.7 0.0 0.8
07:34 14.0 13.9 99 1018.0 5.4 NW 10.7 0.0 0.8
07:35 14.0 13.9 99 1018.0 5.4 NW 10.7 0.0 0.8
07:36 14.0 13.9 99 1017.9 5.4 NW 10.7 0.0 0.8
07:36 14.0 13.9 99 1017.9 5.4 NW 10.7 0.0 0.8
07:37 14.0 13.9 99 1018.0 8.3 WSW 10.7 0.0 0.8
07:38 14.0 13.9 99 1017.9 9.8 WSW 10.7 0.0 0.8
07:39 14.0 13.9 99 1017.9 6.0 S 9.8 0.0 0.8
07:40 14.0 13.9 99 1017.9 6.0 S 9.8 0.0 0.8
07:41 14.0 13.9 99 1017.9 6.0 S 9.8 0.0 0.8
07:42 14.0 13.9 99 1018.0 6.0 S 9.8 0.0 0.8
07:43 14.0 13.9 99 1018.0 6.0 S 9.8 0.0 0.8
07:44 14.1 14.0 99 1018.0 6.9 WSW 9.8 0.0 0.8
07:45 14.1 14.0 99 1018.0 6.9 WSW 9.8 0.0 0.8
07:46 14.1 14.0 99 1018.0 4.5 W 9.8 0.0 0.8
07:47 14.1 14.0 99 1018.0 4.5 W 9.8 0.0 0.8
07:48 14.1 14.0 99 1018.0 4.5 W 9.8 0.0 0.8
07:49 14.1 14.0 99 1018.1 4.5 W 6.9 0.0 0.8
07:50 14.1 14.0 99 1017.9 10.7 W 10.7 0.0 0.8
07:51 14.1 14.0 99 1018.1 4.5 W 10.7 0.0 0.8
07:52 14.1 14.0 99 1017.9 4.5 W 10.7 0.0 0.8
07:53 14.1 14.0 99 1018.2 4.5 W 10.7 0.0 0.8
07:54 14.1 14.0 99 1017.9 4.5 W 10.7 0.0 0.8
07:55 14.2 14.1 99 1018.1 7.6 W 10.7 0.0 0.8
07:56 14.2 14.1 99 1018.0 7.6 W 10.7 0.0 0.8
07:57 14.2 14.1 99 1018.1 7.6 W 10.7 0.0 0.8
07:58 14.2 14.1 99 1018.0 4.5 NW 10.7 0.0 0.8
07:59 14.2 14.1 99 1018.2 4.5 NW 10.7 0.0 0.8
08:00 14.2 14.1 99 1018.1 4.5 NW 7.6 0.0 0.8
08:01 14.2 14.1 99 1018.1 4.5 NW 7.6 0.0 0.8
08:02 14.2 14.1 99 1018.1 4.5 NW 7.6 0.0 0.8
08:03 14.2 14.1 99 1018.2 4.5 NW 7.6 0.0 0.8
08:04 14.2 14.1 99 1018.2 4.5 NW 7.6 0.0 0.8
08:05 14.2 14.1 99 1018.1 4.5 NW 7.6 0.0 0.8
08:06 14.2 14.1 99 1018.0 4.5 NW 7.6 0.0 0.8
08:07 14.3 14.2 99 1018.4 3.8 W 7.6 0.0 0.8
08:08 14.3 14.2 99 1018.3 3.8 W 4.5 0.0 0.8
08:09 14.3 14.2 99 1018.2 3.8 W 4.5 0.0 0.8
08:10 14.3 14.2 99 1018.2 3.8 W 4.5 0.0 0.8
08:11 14.3 14.2 99 1018.4 3.8 W 4.5 0.0 0.8
08:12 14.3 14.2 99 1018.3 3.8 W 4.5 0.0 0.8
08:13 14.3 14.2 99 1018.4 5.4 W 5.4 0.0 0.8
08:15 14.3 14.2 99 1018.4 5.4 W 5.4 0.0 0.8
08:16 14.3 14.2 99 1018.4 4.5 WSW 5.4 0.0 0.8
08:17 14.3 14.2 99 1018.4 3.1 WSW 5.4 0.0 0.8
08:18 14.3 14.2 99 1018.5 3.8 WSW 5.4 0.0 0.8
08:19 14.3 14.2 99 1018.5 4.5 W 5.4 0.0 0.8
08:20 14.3 14.2 99 1018.4 2.2 NW 5.4 0.0 0.8
08:21 14.3 14.2 99 1018.5 3.1 W 5.4 0.0 0.8
08:22 14.3 14.2 99 1018.5 6.0 W 6.0 0.0 0.8
08:23 14.3 14.2 99 1018.3 0.0 W 6.0 0.0 0.8
08:24 14.3 14.2 99 1018.5 6.9 WSW 6.9 0.0 0.8
08:25 14.3 14.2 99 1018.3 6.0 WSW 6.9 0.0 0.8
08:26 14.3 14.2 99 1018.4 5.4 W 6.9 0.0 0.8
08:27 14.3 14.2 99 1018.4 5.4 W 6.9 0.0 0.8
08:28 14.3 14.2 99 1018.2 5.4 W 6.9 0.0 0.8
08:28 14.3 14.2 99 1018.2 5.4 W 6.9 0.0 0.8
08:29 14.3 14.2 99 1018.4 5.4 W 6.9 0.0 0.8
08:30 14.3 14.2 99 1018.6 5.4 W 6.9 0.0 0.8
08:31 14.3 14.2 99 1018.5 8.3 WSW 8.3 0.0 0.8
08:32 14.3 14.2 99 1018.5 6.9 WSW 8.3 0.0 0.8
08:33 14.3 14.2 99 1018.5 4.5 WSW 8.3 0.0 0.8
08:34 14.4 14.3 99 1018.7 6.0 WSW 8.3 0.0 0.8
08:35 14.3 14.2 99 1018.6 2.2 W 8.3 0.0 0.8
08:36 14.4 14.3 99 1018.6 3.1 WSW 8.3 0.0 0.8
08:37 14.4 14.3 99 1018.6 6.0 WSW 8.3 0.0 0.8
08:38 14.4 14.3 99 1018.7 6.9 WSW 8.3 0.0 0.8
08:39 14.3 14.2 99 1018.7 2.2 WSW 8.3 0.0 0.8
08:40 14.4 14.3 99 1018.7 5.4 WSW 8.3 0.0 0.8
08:41 14.4 14.3 99 1018.7 6.0 WSW 8.3 0.0 0.8
08:42 14.4 14.3 99 1018.7 6.9 WSW 6.9 0.0 0.8
08:43 14.4 14.3 99 1018.7 11.4 N 11.4 0.0 0.8
08:44 14.3 14.2 99 1018.8 6.9 W 11.4 0.0 0.8
08:45 14.3 14.2 99 1018.8 2.2 WSW 11.4 0.0 0.8
08:46 14.3 14.2 99 1018.9 2.2 WSW 11.4 0.0 0.8
08:47 14.3 14.2 99 1018.9 3.1 W 11.4 0.0 0.8
08:48 14.3 14.2 99 1019.0 7.6 W 11.4 0.0 0.8
08:49 14.4 14.3 99 1018.7 4.5 WSW 11.4 0.0 0.8
08:50 14.4 14.3 99 1019.0 5.4 WSW 11.4 0.0 0.8
08:51 14.4 14.3 99 1018.7 4.5 WSW 11.4 0.0 0.8
08:52 14.4 14.3 99 1018.7 8.3 WSW 11.4 0.0 0.8
08:53 14.4 14.3 99 1018.7 7.6 W 8.3 0.0 0.8
08:54 14.4 14.3 99 1018.7 6.9 W 8.3 0.0 0.8
08:55 14.4 14.3 99 1018.7 6.9 W 8.3 0.0 0.8
08:56 14.5 14.4 99 1018.7 7.6 NW 8.3 0.0 0.8
08:57 14.5 14.4 99 1018.8 6.0 WSW 8.3 0.0 0.8
08:58 14.5 14.4 99 1018.6 4.5 WSW 8.3 0.0 0.8
08:59 14.5 14.4 99 1018.8 6.9 W 8.3 0.0 0.8
09:00 14.5 14.4 99 1018.7 7.6 WSW 8.3 0.0 0.8
09:01 14.5 14.4 99 1018.7 7.6 WSW 8.3 0.0 0.8
09:02 14.5 14.4 99 1018.9 7.6 WSW 8.3 0.0 0.8
09:03 14.6 14.5 99 1018.8 7.6 NW 7.6 0.0 0.8
09:04 14.6 14.5 99 1018.7 3.1 W 7.6 0.0 0.8
09:05 14.6 14.5 99 1018.6 3.1 W 7.6 0.0 0.8
09:07 14.6 14.5 99 1018.8 3.1 W 7.6 0.0 0.8
09:08 14.6 14.5 99 1018.8 6.0 W 7.6 0.0 0.8
09:09 14.6 14.5 99 1018.7 0.7 W 7.6 0.0 0.8
09:10 14.6 14.5 99 1018.8 6.0 W 7.6 0.0 0.8
09:11 14.6 14.5 99 1018.8 3.8 W 7.6 0.0 0.8
09:12 14.6 14.5 99 1018.7 8.3 W 8.3 0.0 0.8
09:13 14.6 14.5 99 1018.7 5.4 NW 8.3 0.0 0.8
09:14 14.6 14.5 99 1018.7 3.1 W 8.3 0.0 0.8
09:14 14.6 14.5 99 1018.7 3.1 W 8.3 0.0 0.8
09:15 14.6 14.5 99 1018.9 4.5 N 8.3 0.0 0.8
09:16 14.6 14.5 99 1018.7 1.6 W 8.3 0.0 0.8
09:17 14.6 14.5 99 1018.8 6.0 N 8.3 0.0 0.8
09:18 14.7 14.6 99 1018.8 5.4 W 8.3 0.0 0.8
09:19 14.7 14.6 99 1018.9 6.9 W 8.3 0.0 0.8
09:20 14.7 14.6 99 1018.8 5.4 NW 8.3 0.0 0.8
09:21 14.6 14.5 99 1018.7 7.6 NW 8.3 0.0 0.8
09:22 14.7 14.6 99 1018.8 5.4 NW 8.3 0.0 0.8
09:23 14.7 14.6 99 1018.8 7.6 W 7.6 0.0 0.8
09:24 14.7 14.6 99 1018.9 9.8 NW 9.8 0.0 0.8
09:25 14.7 14.6 99 1018.9 3.8 NW 9.8 0.0 0.8
09:26 14.7 14.6 99 1018.9 4.5 W 9.8 0.0 0.8
09:27 14.8 14.7 99 1018.9 5.4 W 9.8 0.0 0.8
09:28 14.8 14.7 99 1018.9 8.3 W 9.8 0.0 0.8
09:29 14.8 14.7 99 1018.9 9.2 SW 9.8 0.0 0.8
09:30 14.8 14.7 99 1018.8 9.2 SW 9.8 0.0 0.8
09:31 14.9 14.8 99 1019.0 8.3 NW 9.8 0.0 0.8
09:32 14.8 14.7 99 1018.9 9.2 SW 9.8 0.0 0.8
09:33 14.8 14.7 99 1019.1 9.2 W 9.8 0.0 0.8
09:35 14.8 14.7 99 1019.0 8.3 SW 9.8 0.0 0.8
09:36 14.8 14.7 99 1019.1 5.4 SW 9.8 0.0 0.8
09:37 14.8 14.7 99 1019.0 9.8 NW 9.8 0.0 0.8
09:38 14.8 14.7 99 1019.0 6.0 W 11.4 0.0 0.8
09:39 14.8 14.7 99 1019.0 4.5 NW 11.4 0.0 0.8
09:40 14.7 14.6 99 1019.0 3.8 W 11.4 0.0 0.8
09:41 14.7 14.6 99 1019.1 3.8 NW 11.4 0.0 0.8
09:42 14.7 14.6 99 1019.1 8.3 W 11.4 0.0 0.8
09:43 14.7 14.6 99 1019.1 13.0 NW 13.0 0.0 0.8
09:44 14.7 14.6 99 1019.2 6.0 NW 13.0 0.0 0.8
09:45 14.6 14.5 99 1018.9 8.3 W 13.0 0.0 0.8
09:46 14.6 14.5 99 1019.2 1.6 W 13.0 0.0 0.8
09:46 14.6 14.5 99 1019.2 1.6 W 13.0 0.0 0.8
09:47 14.6 14.5 99 1019.1 1.6 W 13.0 0.0 0.8
09:48 14.6 14.5 99 1019.2 6.0 NW 13.0 0.0 0.8
09:49 14.6 14.5 99 1019.0 5.4 W 13.0 0.0 0.8
09:50 14.5 14.4 99 1019.1 3.8 NW 13.0 0.0 0.8
09:51 14.5 14.4 99 1019.2 3.8 W 13.0 0.0 0.8
09:52 14.5 14.4 99 1019.3 0.0 W 13.0 0.0 0.8
09:53 14.6 14.5 99 1019.2 1.6 W 8.3 0.0 0.8
09:54 14.6 14.5 99 1019.2 4.5 W 8.3 0.0 0.8
09:55 14.6 14.5 99 1019.2 3.1 W 8.3 0.0 0.8
09:56 14.6 14.5 99 1019.2 5.4 W 6.9 0.0 0.8
09:57 14.6 14.5 99 1019.3 4.5 W 6.9 0.0 0.8
09:58 14.6 14.5 99 1019.2 0.0 W 6.9 0.0 0.8
09:59 14.6 14.5 99 1019.1 3.8 W 6.9 0.0 0.8
10:00 14.7 14.6 99 1019.3 6.9 N 6.9 0.0 0.8
10:01 14.7 14.6 99 1019.2 6.9 N 6.9 0.0 0.8
10:02 14.7 14.6 99 1019.1 3.8 NW 6.9 0.0 0.8
10:03 14.7 14.6 99 1019.3 2.2 NW 6.9 0.0 0.8
10:05 14.8 14.7 99 1019.3 0.7 NW 6.9 0.0 0.8
10:05 14.8 14.7 99 1019.3 0.7 NW 6.9 0.0 0.8
10:06 14.8 14.7 99 1019.2 8.3 W 8.3 0.0 0.8
10:07 14.9 14.8 99 1019.3 7.6 W 8.3 0.0 0.8
10:08 14.9 14.8 99 1019.2 5.4 W 8.3 0.0 0.8
10:09 14.9 14.8 99 1019.3 5.4 NW 8.3 0.0 0.8
10:10 15.0 14.9 99 1019.2 7.6 NW 8.3 0.0 0.8
10:11 15.0 14.9 99 1019.3 6.9 SW 8.3 0.0 0.8
10:13 15.0 14.9 99 1019.5 5.4 W 8.3 0.0 0.8
10:13 15.0 14.9 99 1019.5 5.4 W 8.3 0.0 0.8
10:14 15.1 15.0 99 1019.3 8.3 NW 10.7 0.0 0.8
10:15 15.1 15.0 99 1019.3 6.0 NW 10.7 0.0 0.8
10:16 15.2 15.1 99 1019.4 9.8 SW 10.7 0.0 0.8
10:17 15.2 15.1 99 1019.3 9.8 NW 10.7 0.0 0.8
10:18 15.2 15.1 99 1019.4 9.2 SW 10.7 0.0 0.8
10:20 15.2 15.1 99 1019.3 3.8 NW 10.7 0.0 0.8
10:21 15.2 15.1 99 1019.4 4.5 W 10.7 0.0 0.8
10:22 15.2 15.1 99 1019.3 3.1 SW 10.7 0.0 0.8
10:23 15.2 15.1 99 1019.4 6.9 W 10.7 0.0 0.8
10:24 15.2 15.1 99 1019.5 6.0 SW 10.7 0.0 0.8
10:25 15.2 15.1 99 1019.4 7.6 W 10.7 0.0 0.8
10:25 15.2 15.1 99 1019.4 7.6 W 10.7 0.0 0.8
10:26 15.2 15.1 99 1019.5 7.6 NW 10.7 0.0 0.8
10:27 15.2 15.1 99 1019.5 11.4 S 11.4 0.0 0.8
10:28 15.2 15.1 99 1019.5 11.4 S 11.4 0.0 0.8
10:29 15.2 15.1 99 1019.4 10.7 NW 11.4 0.0 0.8
10:30 15.2 15.1 99 1019.6 5.4 SW 11.4 0.0 0.8
10:31 15.2 15.1 99 1019.6 4.5 W 11.4 0.0 0.8
10:32 15.2 15.1 99 1019.5 6.0 W 11.4 0.0 0.8
10:33 15.3 15.2 99 1019.6 9.2 W 11.4 0.0 0.8
10:34 15.3 15.2 99 1019.6 9.8 SW 11.4 0.0 0.8
10:35 15.4 15.3 99 1019.6 2.2 W 11.4 0.0 0.8
10:36 15.4 15.3 99 1019.6 6.0 N 11.4 0.0 0.8
10:37 15.4 15.3 99 1019.6 4.5 SW 11.4 0.0 0.8
10:38 15.5 15.4 99 1019.6 4.5 SW 10.7 0.0 0.8
10:39 15.5 15.4 99 1019.7 7.6 W 9.8 0.0 0.8
10:41 15.5 15.4 99 1019.6 4.5 SW 9.8 0.0 0.8
10:42 15.5 15.4 99 1019.6 7.6 SW 9.8 0.0 0.8
10:42 15.5 15.4 99 1019.6 7.6 SW 9.8 0.0 0.8
10:43 15.5 15.4 99 1019.6 9.8 SW 9.8 0.0 0.8
10:44 15.6 15.5 99 1019.7 12.1 W 12.1 0.0 0.8
10:45 15.6 15.5 99 1019.8 13.6 W 13.6 0.0 0.8
10:46 15.6 15.5 99 1019.7 11.4 NW 13.6 0.0 0.8
10:47 15.5 15.4 99 1019.7 6.9 W 13.6 0.0 0.8
10:48 15.5 15.4 99 1019.7 6.9 W 13.6 0.0 0.8
10:49 15.5 15.4 99 1019.6 11.4 SW 13.6 0.0 0.8
10:50 15.5 15.4 99 1019.7 11.4 NW 13.6 0.0 0.8
10:51 15.4 15.3 99 1019.7 6.9 NW 13.6 0.0 0.8
10:52 15.4 15.3 99 1019.8 6.0 NW 13.6 0.0 0.8
10:53 15.4 15.3 99 1019.8 7.6 W 13.6 0.0 0.8
10:54 15.4 15.3 99 1019.8 6.9 W 13.6 0.0 0.8
10:55 15.3 15.2 99 1019.9 12.1 N 12.1 0.0 0.8
10:56 15.3 15.2 99 1019.8 9.2 W 12.1 0.0 0.8
10:57 15.3 15.2 99 1020.0 7.6 W 12.1 0.0 0.8
10:58 15.3 15.2 99 1019.9 9.2 W 12.1 0.0 0.8
10:59 15.2 15.1 99 1020.0 9.8 NW 12.1 0.0 0.8
11:00 15.2 15.1 99 1020.0 9.8 NW 12.1 0.0 0.8
11:01 15.2 15.1 99 1019.9 9.8 NW 12.1 0.0 0.8
11:02 15.2 15.1 99 1020.0 8.3 NW 12.1 0.0 0.8
11:03 15.2 15.1 99 1019.9 6.9 SW 12.1 0.0 0.8
11:04 15.2 15.1 99 1020.0 6.0 W 12.1 0.0 0.8
11:05 15.2 15.1 99 1020.1 6.0 W 12.1 0.0 0.8
11:05 15.2 15.1 99 1020.1 6.0 W 12.1 0.0 0.8
11:07 15.1 15.0 99 1020.1 6.0 W 9.8 0.0 0.8
11:08 15.1 15.0 99 1019.9 5.4 N 9.8 0.0 0.8
11:09 15.1 15.0 99 1019.9 8.3 W 9.8 0.0 0.8
11:10 15.1 15.0 99 1020.0 8.3 NW 9.8 0.0 0.8
11:11 15.2 15.1 99 1020.0 4.5 NW 9.8 0.0 0.8
11:12 15.2 15.1 99 1019.9 8.3 NW 9.2 0.0 0.8
11:13 15.2 15.1 99 1019.9 5.4 W 9.2 0.0 0.8
11:14 15.2 15.1 99 1020.1 6.0 NW 9.2 0.0 0.8
11:15 15.3 15.2 99 1019.7 9.2 NNW 9.2 0.0 0.8
11:16 15.3 15.2 99 1019.8 8.3 S 9.2 0.0 0.8
11:17 15.4 15.3 99 1019.8 9.2 SW 9.2 0.0 0.8
11:18 15.4 15.3 99 1019.7 5.4 W 9.2 0.0 0.8
11:20 15.4 15.3 99 1019.7 6.0 W 9.2 0.0 0.8
11:21 15.5 15.4 99 1019.7 4.5 SW 9.2 0.0 0.8
11:22 15.5 15.4 99 1019.9 10.7 SW 10.7 0.0 0.8
11:23 15.5 15.4 99 1019.8 9.2 W 10.7 0.0 0.8
11:24 15.6 15.5 99 1019.9 7.6 SW 10.7 0.0 0.8
11:25 15.6 15.5 99 1019.8 7.6 SW 10.7 0.0 0.8
11:26 15.5 15.4 99 1019.8 5.4 W 10.7 0.0 0.8
11:26 15.5 15.4 99 1019.8 5.4 W 10.7 0.0 0.8
11:27 15.5 15.4 99 1019.7 9.8 N 10.7 0.0 0.8
11:28 15.6 15.5 99 1019.8 7.6 NW 10.7 0.0 0.8
11:29 15.5 15.4 99 1020.0 10.7 W 10.7 0.0 0.8
11:30 15.5 15.4 99 1020.0 9.2 NW 10.7 0.0 0.8
11:31 15.5 15.4 99 1019.9 13.6 W 13.6 0.0 0.8
11:32 24.3 23.8 97 1020.0 12.1 W 13.6 0.0 0.8
11:33 15.4 15.3 99 1020.0 7.6 W 13.6 0.0 0.8
11:34 15.4 15.3 99 1020.0 12.1 W 13.6 0.0 0.8
11:35 15.3 15.2 99 1020.1 10.7 W 13.6 0.0 0.8
11:36 15.3 15.2 99 1020.1 6.9 SW 13.6 0.0 0.8
11:37 15.3 15.2 99 1020.1 7.6 SW 13.6 0.0 0.8
11:38 15.3 15.2 99 1020.1 10.7 N 13.6 0.0 0.8
11:39 15.3 15.2 99 1020.2 10.7 N 13.6 0.0 0.8
11:40 15.3 15.2 99 1020.1 8.3 W 13.6 0.0 0.8
11:41 15.3 15.2 99 1020.1 7.6 W 13.6 0.0 0.8
11:42 15.3 15.2 99 1020.2 8.3 WNW 12.1 0.0 0.8
11:43 15.3 15.2 99 1020.2 8.3 N 12.1 0.0 0.8
11:44 15.3 15.2 99 1020.1 9.2 W 10.7 0.0 0.8
11:45 15.3 15.2 99 1020.1 9.8 W 10.7 0.0 0.8
11:46 15.3 15.2 99 1020.2 3.8 W 10.7 0.0 0.8
11:47 15.3 15.2 99 1020.2 4.5 W 10.7 0.0 0.8
11:48 15.3 15.2 99 1020.1 6.0 NW 10.7 0.0 0.8
11:49 15.3 15.2 99 1020.0 5.4 SW 9.8 0.0 0.8
11:50 15.3 15.2 99 1020.1 9.8 NW 9.8 0.0 0.8
11:51 15.3 15.2 99 1020.1 4.5 W 9.8 0.0 0.8
11:52 15.4 15.3 99 1020.2 4.5 NW 9.8 0.0 0.8
11:53 15.4 15.3 99 1020.2 2.2 NW 9.8 0.0 0.8
11:54 15.4 15.3 99 1020.1 2.2 NW 9.8 0.0 0.8
11:55 15.7 15.6 99 1020.0 7.6 NW 9.8 0.0 0.8
11:56 15.8 15.7 99 1020.0 7.6 N 9.8 0.0 0.8
11:57 15.8 15.7 99 1020.2 7.6 N 9.8 0.0 0.8
11:59 15.9 15.8 99 1020.2 7.6 W 9.8 0.0 0.8
12:00 15.9 15.8 99 1020.0 4.5 W 9.8 0.0 0.8
12:01 15.9 15.8 99 1020.2 3.8 NW 7.6 0.0 0.8
12:01 15.9 15.8 99 1020.2 3.8 NW 7.6 0.0 0.8
12:02 15.9 15.8 99 1020.2 7.6 W 7.6 0.0 0.8
12:03 16.0 15.9 99 1020.2 1.6 W 7.6 0.0 0.8
12:04 16.0 15.9 99 1020.1 9.8 NW 9.8 0.0 0.8
12:05 16.1 16.0 99 1020.1 8.3 S 9.8 0.0 0.8
12:06 16.2 16.1 99 1020.2 5.4 NW 9.8 0.0 0.8
12:07 16.2 16.1 99 1020.2 9.8 NW 9.8 0.0 0.8
12:08 16.2 16.1 99 1020.2 9.8 NW 9.8 0.0 0.8
12:09 16.2 16.1 99 1020.2 9.8 NW 9.8 0.0 0.8
12:10 16.2 16.1 99 1020.2 9.8 NW 9.8 0.0 0.8
12:12 16.4 16.3 99 1020.2 12.1 W 12.1 0.0 0.8
12:13 16.4 16.3 99 1020.1 12.1 W 12.1 0.0 0.8
12:14 16.5 16.4 99 1020.1 9.8 W 12.1 0.0 0.8
12:15 16.5 16.4 99 1020.2 10.7 SW 12.1 0.0 0.8
12:16 16.5 16.4 99 1020.2 6.9 SW 12.1 0.0 0.8
12:16 16.5 16.4 99 1020.2 6.9 SW 12.1 0.0 0.8
12:17 16.5 16.4 99 1020.2 8.3 W 12.1 0.0 0.8
12:18 16.4 16.3 99 1020.2 10.7 NW 12.1 0.0 0.8
12:19 16.4 16.3 99 1020.2 10.7 NW 12.1 0.0 0.8
12:20 16.4 16.3 99 1020.1 10.7 NW 12.1 0.0 0.8
12:21 16.3 16.2 99 1020.2 9.8 W 12.1 0.0 0.8
12:22 16.3 16.2 99 1020.1 4.5 W 12.1 0.0 0.8
12:23 16.2 16.1 99 1020.3 11.4 N 11.4 0.0 0.8
12:24 16.2 16.1 99 1020.3 8.3 NW 11.4 0.0 0.8
12:25 16.2 16.1 99 1020.2 9.2 SW 11.4 0.0 0.8
12:26 16.2 16.1 99 1020.2 7.6 W 11.4 0.0 0.8
12:27 16.3 16.2 99 1020.2 8.3 SW 11.4 0.0 0.8
12:28 16.3 16.2 99 1020.3 8.3 SW 11.4 0.0 0.8
12:29 16.3 16.2 99 1020.3 8.3 SW 11.4 0.0 0.8
12:30 16.3 16.2 99 1020.3 8.3 SW 11.4 0.0 0.8
12:31 16.3 16.2 99 1020.3 8.3 SW 11.4 0.0 0.8
12:32 16.4 16.3 99 1020.3 5.4 SW 11.4 0.0 0.8
12:33 16.4 16.3 99 1020.2 8.3 NW 9.2 0.0 0.8
12:34 16.4 16.3 99 1020.1 8.3 NW 9.2 0.0 0.8
12:35 16.4 16.3 99 1020.2 9.8 NW 9.8 0.0 0.8
12:36 16.4 16.3 99 1020.4 9.8 NW 9.8 0.0 0.8
12:37 16.5 16.4 99 1020.4 8.3 W 9.8 0.0 0.8
12:38 16.5 16.4 99 1020.3 8.3 W 9.8 0.0 0.8
12:39 16.5 16.4 99 1020.2 8.3 W 9.8 0.0 0.8
12:41 16.5 16.4 99 1020.4 8.3 W 9.8 0.0 0.8
12:42 16.5 16.4 99 1020.2 8.3 W 9.8 0.0 0.8
12:43 16.6 16.3 98 1020.3 6.9 W 9.8 0.0 0.8
12:44 16.6 16.3 98 1020.2 5.4 SW 9.8 0.0 0.8
12:45 16.6 16.5 99 1020.2 8.3 NW 9.8 0.0 0.8
12:45 16.6 16.5 99 1020.2 8.3 NW 9.8 0.0 0.8
12:46 16.6 16.5 99 1020.3 8.3 NW 9.8 0.0 0.8
12:47 16.6 16.0 96 1020.3 10.7 NW 10.7 0.0 0.8
12:48 16.6 16.0 96 1020.2 10.7 NW 10.7 0.0 0.8
12:49 16.6 16.0 96 1020.2 10.7 NW 10.7 0.0 0.8
12:50 16.6 16.0 96 1020.4 10.7 NW 10.7 0.0 0.8
12:51 16.6 16.0 96 1020.3 10.7 NW 10.7 0.0 0.8
12:52 16.6 16.0 96 1020.3 3.8 W 10.7 0.0 0.8
12:53 16.5 15.9 96 1020.4 9.2 SW 10.7 0.0 0.8
12:54 16.5 16.0 97 1020.3 7.6 W 10.7 0.0 0.8
12:55 16.5 16.0 97 1020.4 7.6 W 10.7 0.0 0.8
12:56 16.8 16.3 97 1020.4 9.2 N 10.7 0.0 0.8
12:57 16.9 16.1 95 1020.2 13.0 NW 13.0 0.0 0.8
12:58 16.9 16.1 95 1020.3 9.2 N 13.0 0.0 0.8
12:59 16.9 16.1 95 1020.2 9.2 N 13.0 0.0 0.8
13:00 17.0 16.2 95 1020.4 10.7 W 13.0 0.0 0.8
13:01 17.0 16.2 95 1020.3 10.7 W 13.0 0.0 0.8
13:02 16.9 15.4 91 1020.5 13.0 W 13.0 0.0 0.8
13:03 16.8 15.2 90 1020.4 12.1 W 14.5 0.0 0.8
13:04 16.8 15.2 90 1020.4 12.1 W 14.5 0.0 0.8
13:06 17.0 15.7 92 1020.5 8.3 NW 14.5 0.0 0.8
13:06 17.0 15.7 92 1020.5 8.3 NW 14.5 0.0 0.8
13:07 17.0 15.5 91 1020.5 9.2 N 14.5 0.0 0.8
13:08 17.1 15.5 90 1020.4 6.0 NW 14.5 0.0 0.8
13:09 17.2 15.6 90 1020.5 5.4 W 14.5 0.0 0.8
13:10 17.2 15.7 91 1020.5 6.9 W 14.5 0.0 0.8
13:11 17.3 15.3 88 1020.5 9.2 W 14.5 0.0 0.8
13:12 17.3 14.9 86 1020.5 11.4 W 14.5 0.0 0.8
13:13 17.3 14.9 86 1020.6 10.7 NW 12.1 0.0 0.8
13:14 17.4 14.9 85 1020.5 13.0 W 13.0 0.0 0.8
13:15 17.4 15.0 86 1020.3 13.0 NW 13.0 0.0 0.8
13:16 17.5 15.0 85 1020.5 13.0 N 13.0 0.0 0.8
13:17 17.5 14.8 84 1020.6 10.7 NW 13.0 0.0 0.8
13:18 17.6 14.7 83 1020.4 11.4 NE 13.0 0.0 0.8
13:19 17.7 15.3 86 1020.2 6.9 NW 13.0 0.0 0.8
13:20 17.8 15.4 86 1020.3 8.3 S 13.0 0.0 0.8
13:21 17.8 14.9 83 1020.4 13.0 W 13.0 0.0 0.8
13:22 17.9 15.0 83 1020.4 7.6 W 13.0 0.0 0.8
13:24 18.0 15.5 85 1020.3 7.6 SW 13.0 0.0 0.8
13:25 18.1 15.9 87 1020.4 8.3 SW 13.0 0.0 0.8
13:26 18.2 15.3 83 1020.2 9.8 W 13.0 0.0 0.8
13:26 18.2 15.3 83 1020.2 9.8 W 13.0 0.0 0.8
13:27 18.2 15.5 84 1020.2 9.2 W 13.0 0.0 0.8
13:28 18.2 15.6 85 1020.4 6.0 NW 13.0 0.0 0.8
13:29 18.3 15.4 83 1020.2 9.2 SW 13.0 0.0 0.8
13:30 18.3 15.2 82 1020.2 12.1 W 13.0 0.0 0.8
13:31 18.3 15.0 81 1020.3 8.3 W 13.0 0.0 0.8
13:32 18.3 14.8 80 1020.4 6.0 NW 12.1 0.0 0.8
13:33 18.3 15.4 83 1020.2 6.0 W 12.1 0.0 0.8
13:34 18.4 15.5 83 1020.1 8.3 NW 12.1 0.0 0.8
13:35 18.4 15.3 82 1020.3 6.0 NW 12.1 0.0 0.8
13:36 18.4 15.1 81 1020.3 8.3 W 12.1 0.0 0.8
13:37 18.4 15.1 81 1020.3 8.3 W 12.1 0.0 0.8
13:38 18.4 14.9 80 1020.3 8.3 N 12.1 0.0 0.8
13:39 18.3 14.4 78 1020.5 8.3 NW 12.1 0.0 0.8
13:40 18.2 14.7 80 1020.2 6.9 W 9.2 0.0 0.8
13:41 18.1 14.8 81 1020.3 9.2 NW 9.2 0.0 0.8
13:42 18.1 15.0 82 1020.3 6.0 NW 9.2 0.0 0.8
13:43 18.2 15.1 82 1020.5 4.5 W 9.2 0.0 0.8
13:45 18.0 14.7 81 1020.3 7.6 W 9.8 0.0 0.8
13:46 18.0 14.7 81 1020.5 4.5 W 9.8 0.0 0.8
13:47 17.9 14.6 81 1020.5 8.3 N 9.8 0.0 0.8
13:48 17.9 14.6 81 1020.4 8.3 W 9.8 0.0 0.8
13:48 17.9 14.6 81 1020.4 8.3 W 9.8 0.0 0.8
13:49 17.7 14.6 82 1020.3 4.5 N 9.8 0.0 0.8
13:50 17.7 14.6 82 1020.3 6.0 W 9.8 0.0 0.8
13:51 17.7 14.6 82 1020.3 4.5 W 9.8 0.0 0.8
13:52 17.7 14.6 82 1020.2 10.7 NW 10.7 0.0 0.8
13:53 17.6 14.5 82 1020.5 8.3 W 10.7 0.0 0.8
13:54 17.5 14.4 82 1020.4 6.9 SE 10.7 0.0 0.8
13:55 17.5 14.4 82 1020.3 6.9 SE 10.7 0.0 0.8
13:56 17.5 14.4 82 1020.3 9.2 NW 10.7 0.0 0.8
13:57 17.4 14.1 81 1020.4 9.2 N 10.7 0.0 0.8
13:58 17.3 13.8 80 1020.4 8.3 W 10.7 0.0 0.8
13:59 17.1 13.8 81 1020.5 8.3 NW 10.7 0.0 0.8
14:00 17.1 13.8 81 1020.6 6.0 NW 10.7 0.0 0.8
14:01 17.1 13.8 81 1020.5 6.0 NW 10.7 0.0 0.8
14:02 17.1 14.0 82 1020.5 7.6 W 10.7 0.0 0.8
14:03 17.1 14.0 82 1020.5 10.7 NW 10.7 0.0 0.8
14:04 17.1 14.0 82 1020.5 10.7 S 10.7 0.0 0.8
14:05 17.1 14.0 82 1020.5 6.9 SW 10.7 0.0 0.8
14:05 17.1 14.0 82 1020.5 6.9 SW 10.7 0.0 0.8
14:07 17.1 14.2 83 1020.5 6.9 NW 10.7 0.0 0.8
14:08 17.1 14.2 83 1020.6 6.9 W 10.7 0.0 0.8
14:09 17.1 14.2 83 1020.6 6.0 NW 10.7 0.0 0.8
14:10 17.2 14.3 83 1020.5 4.5 SW 10.7 0.0 0.8
14:11 17.2 14.3 83 1020.6 7.6 W 10.7 0.0 0.8
14:12 17.2 14.3 83 1020.6 6.9 W 10.7 0.0 0.8
14:13 17.2 14.3 83 1020.6 6.9 NW 10.7 0.0 0.8
14:14 17.1 14.0 82 1020.4 10.7 W 10.7 0.0 0.8
14:15 17.1 14.0 82 1020.6 10.7 W 10.7 0.0 0.8
14:16 17.1 14.0 82 1020.6 10.7 W 10.7 0.0 0.8
14:17 17.1 14.0 82 1020.5 10.7 W 10.7 0.0 0.8
14:18 17.1 14.0 82 1020.4 10.7 W 10.7 0.0 0.8
14:19 16.9 13.8 82 1020.4 4.5 NW 10.7 0.0 0.8
14:20 16.9 13.8 82 1020.4 8.3 W 10.7 0.0 0.8
14:21 16.8 13.7 82 1020.5 5.4 W 10.7 0.0 0.8
14:22 16.8 13.9 83 1020.5 6.9 W 10.7 0.0 0.8
14:24 16.8 13.9 83 1020.5 9.8 NW 10.7 0.0 0.8
14:25 16.8 13.9 83 1020.4 9.2 W 10.7 0.0 0.8
14:25 16.8 13.9 83 1020.4 9.2 W 10.7 0.0 0.8
14:26 16.8 13.9 83 1020.6 9.2 NW 10.7 0.0 0.8
14:27 16.8 14.1 84 1020.6 5.4 NW 10.7 0.0 0.8
14:28 16.8 14.1 84 1020.6 3.8 W 10.7 0.0 0.8
14:29 16.8 14.1 84 1020.6 6.0 W 9.8 0.0 0.8
14:30 16.9 14.4 85 1020.4 8.3 NW 9.8 0.0 0.8
14:31 16.9 14.2 84 1020.6 6.0 W 9.8 0.0 0.8
14:32 16.9 14.2 84 1020.6 5.4 W 9.8 0.0 0.8
14:33 16.9 14.2 84 1020.5 10.7 SW 10.7 0.0 0.8
14:34 16.9 14.2 84 1020.6 10.7 SW 10.7 0.0 0.8
14:35 16.9 14.2 84 1020.7 10.7 SW 10.7 0.0 0.8
14:35 16.9 14.2 84 1020.7 10.7 SW 10.7 0.0 0.8
14:37 16.9 14.2 84 1020.7 10.7 SW 10.7 0.0 0.8
14:38 16.9 14.2 84 1020.7 10.7 SW 10.7 0.0 0.8
14:39 16.9 14.2 84 1020.6 10.7 SW 10.7 0.0 0.8
14:40 16.9 14.2 84 1020.6 10.7 SW 10.7 0.0 0.8
14:41 16.9 14.2 84 1020.6 10.7 SW 10.7 0.0 0.8
14:42 16.9 14.2 84 1020.6 10.7 SW 10.7 0.0 0.8
14:43 16.9 14.2 84 1020.5 10.7 SW 10.7 0.0 0.8
14:44 16.9 14.2 84 1020.7 10.7 SW 10.7 0.0 0.8
14:45 16.9 14.2 84 1020.5 10.7 SW 10.7 0.0 0.8
14:46 16.9 14.2 84 1020.6 10.7 SW 10.7 0.0 0.8
14:47 16.9 14.2 84 1020.6 10.7 SW 10.7 0.0 0.8
14:48 16.9 14.2 84 1020.6 10.7 SW 10.7 0.0 0.8
14:49 16.9 14.2 84 1020.6 10.7 SW 10.7 0.0 0.8
14:50 16.9 14.2 84 1020.7 10.7 SW 10.7 0.0 0.8
14:52 16.9 14.2 84 1020.6 10.7 SW 10.7 0.0 0.8
14:53 16.9 14.2 84 1020.7 10.7 SW 10.7 0.0 0.8
14:53 16.9 14.2 84 1020.7 10.7 SW 10.7 0.0 0.8
14:54 16.9 14.2 84 1020.7 10.7 SW 10.7 0.0 0.8
14:55 16.9 14.2 84 1020.7 10.7 SW 10.7 0.0 0.8
14:56 16.9 14.2 84 1020.7 10.7 SW 10.7 0.0 0.8
14:57 16.9 14.2 84 1020.6 10.7 SW 10.7 0.0 0.8
14:58 16.9 14.2 84 1020.6 10.7 SW 10.7 0.0 0.8
14:59 16.9 14.2 84 1020.6 10.7 SW 10.7 0.0 0.8
15:00 16.9 14.2 84 1020.6 10.7 SW 10.7 0.0 0.8
15:01 16.9 14.2 84 1020.7 10.7 SW 10.7 0.0 0.8
15:02 16.9 14.2 84 1020.7 10.7 SW 10.7 0.0 0.8
15:03 16.7 14.2 85 1020.6 7.6 W 8.3 0.0 0.8
15:04 16.7 14.2 85 1020.7 6.0 W 8.3 0.0 0.8
15:05 16.7 14.2 85 1020.6 9.8 N 9.8 0.0 0.8
15:07 16.7 14.0 84 1020.7 9.2 W 9.8 0.0 0.8
15:08 16.7 14.0 84 1020.6 9.2 SW 9.8 0.0 0.8
15:09 16.7 14.0 84 1020.6 2.2 W 9.8 0.0 0.8
15:10 16.7 14.0 84 1020.6 2.2 W 9.8 0.0 0.8
15:11 16.7 14.0 84 1020.6 2.2 W 9.8 0.0 0.8
15:12 16.7 14.0 84 1020.6 2.2 W 9.8 0.0 0.8
15:13 16.7 14.0 84 1020.6 2.2 W 9.8 0.0 0.8
15:14 16.7 14.0 84 1020.7 2.2 W 9.8 0.0 0.8
15:15 16.7 14.0 84 1020.7 2.2 W 9.8 0.0 0.8
15:16 16.7 14.0 84 1020.7 2.2 W 9.2 0.0 0.8
15:17 16.7 14.0 84 1020.7 2.2 W 9.2 0.0 0.8
15:18 16.7 14.0 84 1020.7 2.2 W 9.2 0.0 0.8
15:19 16.7 14.0 84 1020.7 2.2 W 9.2 0.0 0.8
15:20 16.7 14.0 84 1020.5 2.2 W 9.2 0.0 0.8
15:21 16.7 14.0 84 1020.7 2.2 W 9.2 0.0 0.8
15:22 16.7 14.0 84 1020.7 2.2 W 9.2 0.0 0.8
15:23 16.7 14.0 84 1020.7 2.2 W 9.2 0.0 0.8
15:24 16.7 14.0 84 1020.7 2.2 W 9.2 0.0 0.8
15:25 16.7 14.0 84 1020.6 2.2 W 9.2 0.0 0.8
15:26 16.7 14.0 84 1020.6 2.2 W 9.2 0.0 0.8
15:27 16.7 14.0 84 1020.5 2.2 W 9.2 0.0 0.8
15:29 16.7 14.0 84 1020.5 2.2 W 9.2 0.0 0.8
15:30 16.7 14.0 84 1020.7 2.2 W 9.2 0.0 0.8
15:30 16.7 14.0 84 1020.7 2.2 W 9.2 0.0 0.8
15:31 16.7 14.0 84 1020.6 2.2 W 9.2 0.0 0.8
15:32 17.2 13.5 79 1020.5 5.4 NW 5.4 0.0 0.8
15:33 17.3 14.0 81 1020.6 4.5 W 5.4 0.0 0.8
15:34 17.5 13.8 79 1020.6 8.3 SW 10.7 0.0 0.8
15:35 17.6 13.9 79 1020.5 6.0 W 10.7 0.0 0.8
15:36 17.7 14.0 79 1020.8 10.7 W 10.7 0.0 0.8
15:37 17.7 13.6 77 1020.5 13.0 W 13.0 0.0 0.8
15:38 17.6 13.3 76 1020.5 9.2 NW 13.0 0.0 0.8
15:39 17.5 13.2 76 1020.6 9.8 SW 13.0 0.0 0.8
15:40 17.5 13.2 76 1020.7 8.3 W 13.0 0.0 0.8
15:41 17.5 13.2 76 1020.7 10.7 NW 13.0 0.0 0.8
15:42 17.5 13.2 76 1020.8 9.8 SW 13.0 0.0 0.8
15:43 17.4 13.1 76 1020.6 9.8 W 13.0 0.0 0.8
15:44 17.4 13.1 76 1020.7 9.8 W 13.0 0.0 0.8
15:45 17.4 13.1 76 1020.7 7.6 W 13.0 0.0 0.8
15:46 17.4 13.3 77 1020.7 9.2 NW 13.0 0.0 0.8
15:48 17.4 13.3 77 1020.6 5.4 W 10.7 0.0 0.8
15:48 17.4 13.3 77 1020.6 5.4 W 10.7 0.0 0.8
15:49 17.4 13.3 77 1020.7 7.6 N 10.7 0.0 0.8
15:50 17.4 13.3 77 1020.7 10.7 SW 10.7 0.0 0.8
15:51 17.4 13.3 77 1020.7 10.7 SW 10.7 0.0 0.8
15:52 17.4 13.3 77 1020.7 10.7 SW 10.7 0.0 0.8
15:53 17.4 13.3 77 1020.7 10.7 SW 10.7 0.0 0.8
15:54 17.4 13.3 77 1020.7 10.7 SW 10.7 0.0 0.8
15:55 17.4 13.3 77 1020.6 10.7 SW 10.7 0.0 0.8
15:56 17.4 13.3 77 1020.7 10.7 SW 10.7 0.0 0.8
15:57 17.4 13.3 77 1020.7 10.7 SW 10.7 0.0 0.8
15:58 17.4 13.3 77 1020.7 10.7 SW 10.7 0.0 0.8
15:59 17.2 12.9 76 1020.7 7.6 W 10.7 0.0 0.8
16:00 17.2 12.9 76 1020.7 7.6 W 10.7 0.0 0.8
16:02 17.2 12.9 76 1020.8 7.6 W 10.7 0.0 0.8
16:02 17.2 12.9 76 1020.8 7.6 W 10.7 0.0 0.8
16:03 17.2 12.9 76 1020.9 7.6 W 10.7 0.0 0.8
16:04 17.2 12.9 76 1020.8 7.6 W 10.7 0.0 0.8
16:05 17.2 12.9 76 1020.8 7.6 W 10.7 0.0 0.8
16:05 17.2 12.9 76 1020.8 7.6 W 10.7 0.0 0.8
16:07 17.2 12.9 76 1020.7 7.6 W 10.7 0.0 0.8
16:07 17.2 12.9 76 1020.7 7.6 W 10.7 0.0 0.8
16:07 17.2 12.9 76 1020.7 7.6 W 10.7 0.0 0.8
16:10 17.2 12.9 76 1020.8 3.1 NW 7.6 0.0 0.8
16:10 17.2 12.9 76 1020.8 3.1 NW 7.6 0.0 0.8
16:12 17.2 13.1 77 1020.7 8.3 W 8.3 0.0 0.8
16:12 17.2 13.1 77 1020.7 8.3 W 8.3 0.0 0.8
16:12 17.2 13.1 77 1020.7 8.3 W 8.3 0.0 0.8
16:15 17.2 12.9 76 1020.7 10.7 N 10.7 0.0 0.8
16:15 17.2 12.9 76 1020.7 10.7 N 10.7 0.0 0.8
16:17 17.5 13.8 79 1020.7 6.9 W 10.7 0.0 0.8
16:17 17.5 13.8 79 1020.7 6.9 W 10.7 0.0 0.8
16:19 17.6 13.7 78 1020.8 9.2 N 10.7 0.0 0.8
16:19 17.6 13.7 78 1020.8 9.2 N 10.7 0.0 0.8
16:21 17.7 13.8 78 1020.9 4.5 W 10.7 0.0 0.8
16:21 17.7 13.8 78 1020.9 4.5 W 10.7 0.0 0.8
16:24 17.7 13.8 78 1020.7 4.5 W 10.7 0.0 0.8
16:24 17.7 13.8 78 1020.7 4.5 W 10.7 0.0 0.8
16:26 17.7 13.8 78 1020.8 4.5 W 10.7 0.0 0.8
16:26 17.7 13.8 78 1020.8 4.5 W 10.7 0.0 0.8
16:26 17.7 13.8 78 1020.8 4.5 W 10.7 0.0 0.8
16:28 17.7 13.8 78 1020.7 4.5 W 10.7 0.0 0.8
16:28 17.7 13.8 78 1020.7 4.5 W 10.7 0.0 0.8
16:30 17.6 13.5 77 1020.9 4.5 NW 4.5 0.0 0.8
16:30 17.6 13.5 77 1020.9 4.5 NW 4.5 0.0 0.8
16:32 17.6 13.5 77 1020.8 4.5 NW 4.5 0.0 0.8
16:32 17.6 13.5 77 1020.8 4.5 NW 4.5 0.0 0.8
16:34 17.8 13.7 77 1020.9 9.2 NW 9.2 0.0 0.8
16:34 17.8 13.7 77 1020.9 9.2 NW 9.2 0.0 0.8
16:36 17.6 13.3 76 1020.9 3.8 S 9.2 0.0 0.8
16:36 17.6 13.3 76 1020.9 3.8 S 9.2 0.0 0.8
16:36 17.6 13.3 76 1020.9 3.8 S 9.2 0.0 0.8
16:39 17.6 13.3 76 1020.8 7.6 NW 9.2 0.0 0.8
16:39 17.6 13.3 76 1020.8 7.6 NW 9.2 0.0 0.8
16:39 17.6 13.3 76 1020.8 7.6 NW 9.2 0.0 0.8
16:42 17.5 13.2 76 1020.8 6.9 NW 9.2 0.0 0.8
16:42 17.5 13.2 76 1020.8 6.9 NW 9.2 0.0 0.8
16:44 17.5 13.2 76 1020.8 6.9 NW 9.2 0.0 0.8
16:44 17.5 13.2 76 1020.8 6.9 NW 9.2 0.0 0.8
16:46 17.5 13.2 76 1020.7 6.9 NW 7.6 0.0 0.8
16:46 17.5 13.2 76 1020.7 6.9 NW 7.6 0.0 0.8
16:46 17.5 13.2 76 1020.7 6.9 NW 7.6 0.0 0.8
16:49 16.9 12.9 77 1020.9 8.3 NW 8.3 0.0 0.8
16:49 16.9 12.9 77 1020.9 8.3 NW 8.3 0.0 0.8
16:51 16.9 13.0 78 1021.0 5.4 NW 8.3 0.0 0.8
16:53 16.8 13.0 78 1020.9 3.8 NW 8.3 0.0 0.8
16:53 16.8 13.0 78 1020.9 3.8 NW 8.3 0.0 0.8
16:54 16.7 13.0 79 1021.0 6.0 N 8.3 0.0 0.8
16:54 16.7 13.0 79 1021.0 6.0 N 8.3 0.0 0.8
16:56 16.7 13.0 79 1020.9 8.3 W 8.3 0.0 0.8
16:56 16.7 13.0 79 1020.9 8.3 W 8.3 0.0 0.8
16:58 16.6 13.0 79 1020.8 3.1 NW 8.3 0.0 0.8
17:00 16.6 13.0 79 1021.0 3.8 NW 8.3 0.0 0.8
17:01 16.6 13.0 79 1021.0 3.8 NW 8.3 0.0 0.8
17:01 16.6 13.0 79 1021.0 3.8 NW 8.3 0.0 0.8
17:03 16.6 13.1 80 1020.9 6.9 NW 8.3 0.0 0.8
17:05 16.5 13.0 80 1020.9 9.2 N 9.2 0.0 0.8
17:05 16.5 13.0 80 1020.9 9.2 N 9.2 0.0 0.8
17:06 16.5 13.2 81 1020.9 6.9 NW 9.2 0.0 0.8
17:06 16.5 13.2 81 1020.9 6.9 NW 9.2 0.0 0.8
17:08 16.5 13.2 81 1021.0 6.0 SW 9.2 0.0 0.8
17:09 16.4 13.1 81 1020.9 6.0 SW 9.2 0.0 0.8
17:10 16.5 13.2 81 1020.9 5.4 W 9.2 0.0 0.8
17:11 16.4 13.1 81 1021.0 3.1 SW 9.2 0.0 0.8
17:12 16.4 13.1 81 1020.9 4.5 W 9.2 0.0 0.8
17:13 16.4 13.3 82 1021.0 5.4 NW 9.2 0.0 0.8
17:14 16.4 13.3 82 1020.9 3.1 W 9.2 0.0 0.8
17:15 16.4 13.3 82 1021.0 3.1 W 9.2 0.0 0.8
17:16 16.4 13.3 82 1021.0 3.1 W 6.9 0.0 0.8
17:17 16.4 13.3 82 1021.0 3.1 W 6.9 0.0 0.8
17:18 16.4 13.3 82 1020.9 3.1 W 6.0 0.0 0.8
17:19 16.4 13.3 82 1021.0 3.1 W 6.0 0.0 0.8
17:20 16.4 13.3 82 1020.9 3.1 W 5.4 0.0 0.8
17:21 16.4 13.3 82 1020.9 3.1 W 5.4 0.0 0.8
17:22 16.4 13.3 82 1021.0 3.1 W 5.4 0.0 0.8
17:24 16.4 13.3 82 1020.7 3.1 W 5.4 0.0 0.8
17:24 16.4 13.3 82 1020.7 3.1 W 5.4 0.0 0.8
17:25 16.4 13.3 82 1021.0 3.1 W 5.4 0.0 0.8
17:26 16.4 13.3 82 1020.8 3.1 W 5.4 0.0 0.8
17:27 16.4 13.3 82 1020.9 3.1 W 5.4 0.0 0.8
17:28 16.4 13.3 82 1020.7 3.1 W 5.4 0.0 0.8
17:29 16.4 13.3 82 1020.9 3.1 W 5.4 0.0 0.8
17:30 16.4 13.3 82 1021.0 3.1 W 5.4 0.0 0.8
17:31 17.2 13.7 80 1021.0 12.1 NW 12.1 0.0 0.8
17:32 17.1 13.2 78 1021.0 13.0 SW 13.0 0.0 0.8
17:33 17.2 13.5 79 1020.9 9.8 W 13.0 0.0 0.8
17:34 17.2 13.7 80 1020.9 6.0 W 13.0 0.0 0.8
17:35 17.3 14.0 81 1021.0 6.0 W 13.0 0.0 0.8
17:36 17.4 14.1 81 1021.0 7.6 W 13.0 0.0 0.8
17:38 17.5 14.0 80 1020.9 8.3 W 13.0 0.0 0.8
17:38 17.5 14.0 80 1020.9 8.3 W 13.0 0.0 0.8
17:39 17.5 14.0 80 1021.0 6.9 W 13.0 0.0 0.8
17:40 17.5 14.0 80 1020.8 6.9 W 13.0 0.0 0.8
17:41 17.5 14.0 80 1021.0 6.9 W 13.0 0.0 0.8
17:42 17.5 14.0 80 1021.0 6.9 W 13.0 0.0 0.8
17:43 17.5 14.0 80 1021.1 6.9 W 9.8 0.0 0.8
17:44 17.5 14.0 80 1021.1 6.9 W 8.3 0.0 0.8
17:45 17.9 14.2 79 1021.0 7.6 SW 8.3 0.0 0.8
17:46 17.9 14.2 79 1021.0 7.6 SW 8.3 0.0 0.8
17:48 17.9 14.2 79 1020.9 7.6 SW 8.3 0.0 0.8
17:49 17.9 14.2 79 1021.0 7.6 SW 7.6 0.0 0.8
17:50 17.9 14.2 79 1020.9 7.6 SW 7.6 0.0 0.8
17:51 17.9 14.2 79 1020.9 7.6 SW 7.6 0.0 0.8
17:52 17.6 14.1 80 1020.9 7.6 W 7.6 0.0 0.8
17:53 17.6 14.1 80 1020.8 7.6 W 7.6 0.0 0.8
17:54 17.6 14.1 80 1020.9 7.6 W 7.6 0.0 0.8
17:55 17.6 14.1 80 1021.0 7.6 W 7.6 0.0 0.8
17:56 17.6 14.1 80 1020.9 7.6 W 7.6 0.0 0.8
17:57 17.6 14.1 80 1021.1 7.6 W 7.6 0.0 0.8
17:58 17.2 13.9 81 1021.1 7.6 NW 7.6 0.0 0.8
17:58 17.2 13.9 81 1021.1 7.6 NW 7.6 0.0 0.8
17:59 17.1 14.0 82 1021.1 6.0 NW 7.6 0.0 0.8
18:00 17.1 14.2 83 1021.1 3.8 NW 7.6 0.0 0.8
18:01 17.2 14.5 84 1020.9 2.2 SW 7.6 0.0 0.8
18:02 17.3 14.2 82 1020.9 8.3 NW 8.3 0.0 0.8
18:03 17.4 14.3 82 1020.9 3.1 W 8.3 0.0 0.8
18:04 17.4 14.1 81 1021.0 4.5 W 8.3 0.0 0.8
18:05 17.6 14.1 80 1021.0 10.7 NW 10.7 0.0 0.8
18:07 17.6 13.9 79 1021.0 9.8 W 10.7 0.0 0.8
18:07 17.6 13.9 79 1021.0 9.8 W 10.7 0.0 0.8
18:08 17.6 13.9 79 1020.9 5.4 W 12.1 0.0 0.8
18:09 17.6 13.9 79 1021.0 6.0 W 12.1 0.0 0.8
18:10 17.6 13.9 79 1021.1 6.0 NW 12.1 0.0 0.8
18:11 17.6 14.1 80 1021.0 6.0 W 12.1 0.0 0.8
18:12 17.6 14.1 80 1021.0 6.0 W 12.1 0.0 0.8
18:14 17.6 14.1 80 1021.0 6.0 W 12.1 0.0 0.8
18:15 17.6 14.1 80 1021.1 6.0 W 12.1 0.0 0.8
18:16 17.6 14.1 80 1021.0 6.0 W 12.1 0.0 0.8
18:17 17.6 14.1 80 1021.1 6.0 W 12.1 0.0 0.8
18:18 17.6 14.1 80 1021.2 6.0 W 6.9 0.0 0.8
18:19 17.6 14.1 80 1021.1 6.0 W 6.9 0.0 0.8
18:20 17.6 14.1 80 1021.0 6.0 W 6.9 0.0 0.8
18:21 17.6 14.1 80 1020.9 6.0 W 6.9 0.0 0.8
18:22 17.6 14.1 80 1021.0 6.0 W 6.9 0.0 0.8
18:22 17.6 14.1 80 1021.0 6.0 W 6.9 0.0 0.8
18:23 17.6 14.1 80 1021.1 6.0 W 6.9 0.0 0.8
18:24 17.6 14.1 80 1020.8 6.0 W 6.9 0.0 0.8
18:25 17.6 14.1 80 1020.9 6.0 W 6.9 0.0 0.8
18:26 17.6 14.1 80 1021.0 6.0 W 6.9 0.0 0.8
18:27 17.6 14.1 80 1021.1 6.0 W 6.9 0.0 0.8
18:28 17.7 14.2 80 1021.1 6.0 NE 6.0 0.0 0.8
18:29 17.6 14.1 80 1021.1 9.2 SW 9.2 0.0 0.8
18:30 17.7 14.4 81 1021.0 8.3 SW 9.2 0.0 0.8
18:31 17.7 14.2 80 1020.9 8.3 NW 9.2 0.0 0.8
18:33 17.6 13.9 79 1021.0 11.4 SW 11.4 0.0 0.8
18:34 17.6 14.1 80 1021.1 5.4 NW 11.4 0.0 0.8
18:35 17.6 14.3 81 1021.1 6.9 SW 11.4 0.0 0.8
18:36 17.6 14.1 80 1021.2 7.6 W 11.4 0.0 0.8
18:37 17.6 14.3 81 1021.2 7.6 W 11.4 0.0 0.8
18:38 17.6 14.3 81 1021.0 6.9 W 11.4 0.0 0.8
18:39 17.6 14.3 81 1021.2 3.8 W 11.4 0.0 0.8
18:40 17.6 14.3 81 1021.1 10.7 NW 11.4 0.0 0.8
18:41 17.6 14.3 81 1021.2 4.5 W 11.4 0.0 0.8
18:42 17.7 14.2 80 1021.2 9.8 SW 11.4 0.0 0.8
18:42 17.7 14.2 80 1021.2 9.8 SW 11.4 0.0 0.8
18:43 17.7 14.2 80 1021.2 11.4 N 11.4 0.0 0.8
18:44 17.7 14.2 80 1021.2 9.2 SW 11.4 0.0 0.8
18:45 17.7 14.2 80 1021.2 6.9 WNW 11.4 0.0 0.8
18:46 17.7 14.4 81 1021.1 8.3 SW 11.4 0.0 0.8
18:47 17.7 14.4 81 1021.2 6.9 SW 11.4 0.0 0.8
18:48 17.7 14.4 81 1021.2 8.3 W 11.4 0.0 0.8
18:49 17.7 14.4 81 1021.3 6.9 WNW 11.4 0.0 0.8
18:51 17.7 14.6 82 1021.2 7.6 SW 11.4 0.0 0.8
18:52 17.7 14.6 82 1021.2 6.9 SW 11.4 0.0 0.8
18:53 17.7 14.6 82 1021.2 8.3 SW 11.4 0.0 0.8
18:53 17.7 14.6 82 1021.2 8.3 SW 11.4 0.0 0.8
18:54 17.7 14.6 82 1021.2 6.0 SW 9.2 0.0 0.8
18:55 17.7 14.6 82 1021.2 7.6 N 9.2 0.0 0.8
18:56 17.7 14.6 82 1021.2 7.6 SW 8.3 0.0 0.8
18:57 17.7 14.6 82 1021.2 6.9 W 8.3 0.0 0.8
18:59 17.7 14.6 82 1021.2 7.6 SW 8.3 0.0 0.8
19:00 17.7 14.8 83 1021.2 6.9 SW 8.3 0.0 0.8
19:01 17.7 14.6 82 1021.3 7.6 NW 8.3 0.0 0.8
19:01 17.7 14.6 82 1021.3 7.6 NW 8.3 0.0 0.8
19:02 17.7 14.6 82 1021.2 6.9 NW 8.3 0.0 0.8
19:03 17.7 14.6 82 1021.2 6.9 W 8.3 0.0 0.8
19:04 17.6 14.5 82 1021.2 10.7 W 10.7 0.0 0.8
19:06 17.6 14.5 82 1021.3 8.3 W 12.1 0.0 0.8
19:06 17.6 14.5 82 1021.3 8.3 W 12.1 0.0 0.8
19:07 17.5 14.4 82 1021.2 4.5 W 12.1 0.0 0.8
19:08 17.5 14.4 82 1021.2 8.3 W 12.1 0.0 0.8
19:09 17.5 14.4 82 1021.3 5.4 SW 12.1 0.0 0.8
19:10 17.4 14.3 82 1021.3 6.9 SW 12.1 0.0 0.8
19:11 17.4 14.3 82 1021.4 4.5 NW 12.1 0.0 0.8
19:13 17.4 14.3 82 1021.2 6.0 W 12.1 0.0 0.8
19:14 17.4 14.3 82 1021.3 12.1 SW 12.1 0.0 0.8
19:15 17.3 14.2 82 1021.3 7.6 SW 12.1 0.0 0.8
19:16 17.3 14.2 82 1021.3 6.9 W 12.1 0.0 0.8
19:17 17.3 14.2 82 1021.3 8.3 SW 12.1 0.0 0.8
19:17 17.3 14.2 82 1021.3 8.3 SW 12.1 0.0 0.8
19:18 17.2 14.1 82 1021.3 8.3 NW 12.1 0.0 0.8
19:19 17.1 14.0 82 1021.3 6.9 W 12.1 0.0 0.8
19:20 17.0 13.9 82 1021.4 5.4 S 12.1 0.0 0.8
19:21 17.0 13.9 82 1021.3 7.6 NW 12.1 0.0 0.8
19:23 16.8 13.7 82 1021.2 0.0 W 12.1 0.0 0.8
19:24 16.8 13.9 83 1021.2 0.0 W 11.4 0.0 0.8
19:25 16.8 13.9 83 1021.3 5.4 SW 8.3 0.0 0.8
19:26 16.7 13.8 83 1021.3 5.4 NW 8.3 0.0 0.8
19:27 16.6 13.7 83 1021.4 3.8 SW 8.3 0.0 0.8
19:28 16.6 13.7 83 1021.2 5.4 W 8.3 0.0 0.8
19:29 16.6 13.7 83 1021.4 2.2 SW 7.6 0.0 0.8
19:30 16.5 13.6 83 1021.3 9.2 W 9.2 0.0 0.8
19:31 16.4 13.5 83 1021.4 5.4 W 9.2 0.0 0.8
19:32 16.3 13.6 84 1021.3 9.2 SW 9.2 0.0 0.8
19:33 16.3 13.6 84 1021.5 6.0 W 9.2 0.0 0.8
19:33 16.3 13.6 84 1021.5 6.0 W 9.2 0.0 0.8
19:34 16.2 13.5 84 1021.2 4.5 W 9.2 0.0 0.8
19:35 16.2 13.5 84 1021.4 6.9 W 9.2 0.0 0.8
19:36 16.1 13.4 84 1021.3 3.1 SW 9.2 0.0 0.8
19:37 16.0 13.5 85 1021.3 6.9 W 9.2 0.0 0.8
19:38 16.0 13.5 85 1021.4 4.5 SW 9.2 0.0 0.8
19:38 16.0 13.5 85 1021.4 4.5 SW 9.2 0.0 0.8
19:40 15.9 13.4 85 1021.4 6.9 W 9.2 0.0 0.8
19:41 15.8 13.3 85 1021.4 5.4 W 9.2 0.0 0.8
19:42 15.8 13.5 86 1021.4 7.6 SW 7.6 0.0 0.8
19:43 15.8 13.5 86 1021.4 3.8 SW 7.6 0.0 0.8
19:45 15.7 13.4 86 1021.5 2.2 SW 7.6 0.0 0.8
19:46 15.6 13.5 87 1021.4 3.1 W 7.6 0.0 0.8
19:47 15.6 13.5 87 1021.4 3.1 W 7.6 0.0 0.8
19:48 15.6 13.5 87 1021.5 0.0 W 7.6 0.0 0.8
19:50 15.8 13.6 87 1021.4 0.0 NW 7.6 0.0 0.8
19:51 15.8 13.6 87 1021.6 0.0 NW 7.6 0.0 0.8
19:52 15.8 13.6 87 1021.4 0.0 NW 7.6 0.0 0.8
19:53 15.8 13.6 87 1021.4 0.0 NW 7.6 0.0 0.8
19:54 15.5 13.5 88 1021.4 8.3 W 8.3 0.0 0.8
19:55 15.4 13.4 88 1021.5 5.4 W 8.3 0.0 0.8
19:56 15.4 13.4 88 1021.3 5.4 W 8.3 0.0 0.8
19:57 15.4 13.4 88 1021.5 5.4 W 8.3 0.0 0.8
19:58 15.4 13.4 88 1021.5 5.4 W 8.3 0.0 0.8
19:59 15.4 13.4 88 1021.4 5.4 W 8.3 0.0 0.8
20:00 15.3 13.5 89 1021.4 3.1 SW 8.3 0.0 0.8
20:01 15.3 13.5 89 1021.4 1.6 W 8.3 0.0 0.8
20:01 15.3 13.5 89 1021.4 1.6 W 8.3 0.0 0.8
20:02 15.3 13.5 89 1021.4 1.6 W 8.3 0.0 0.8
20:03 15.3 13.5 89 1021.4 1.6 W 8.3 0.0 0.8
20:04 15.3 13.5 89 1021.4 1.6 W 5.4 0.0 0.8
20:05 15.3 13.5 89 1021.4 1.6 W 5.4 0.0 0.8
20:07 15.3 13.5 89 1021.3 1.6 W 5.4 0.0 0.8
20:07 15.3 13.5 89 1021.3 1.6 W 5.4 0.0 0.8
20:08 15.3 13.5 89 1021.3 1.6 W 5.4 0.0 0.8
20:10 15.3 13.5 89 1021.5 1.6 W 5.4 0.0 0.8
20:10 15.3 13.5 89 1021.5 1.6 W 5.4 0.0 0.8
20:11 15.3 13.5 89 1021.3 1.6 W 5.4 0.0 0.8
20:12 15.3 13.5 89 1021.4 1.6 W 5.4 0.0 0.8
20:13 15.3 13.5 89 1021.4 1.6 W 5.4 0.0 0.8
20:15 15.3 13.5 89 1021.2 1.6 W 5.4 0.0 0.8
20:16 15.3 13.5 89 1021.4 1.6 W 5.4 0.0 0.8
20:17 15.3 13.5 89 1021.3 1.6 W 5.4 0.0 0.8
20:18 15.3 13.5 89 1021.4 1.6 W 5.4 0.0 0.8
20:19 15.3 13.5 89 1021.4 1.6 W 5.4 0.0 0.8
20:20 15.3 13.5 89 1021.4 1.6 W 5.4 0.0 0.8
20:21 15.3 13.5 89 1021.5 1.6 W 5.4 0.0 0.8
20:22 15.3 13.5 89 1021.3 1.6 W 5.4 0.0 0.8
20:24 15.0 13.9 93 1021.4 4.5 W 4.5 0.0 0.8
20:25 14.9 13.8 93 1021.5 0.0 W 4.5 0.0 0.8
20:26 14.9 13.8 93 1021.5 0.0 W 4.5 0.0 0.8
20:27 14.9 13.8 93 1021.5 0.0 W 4.5 0.0 0.8
20:27 14.9 13.8 93 1021.5 0.0 W 4.5 0.0 0.8
20:28 14.9 13.8 93 1021.4 0.0 W 4.5 0.0 0.8
20:29 14.9 13.8 93 1021.4 0.0 W 4.5 0.0 0.8
20:31 14.8 13.7 93 1021.6 2.2 SW 4.5 0.0 0.8
20:32 14.8 13.7 93 1021.3 2.2 SW 4.5 0.0 0.8
20:33 14.8 13.9 94 1021.5 0.0 W 4.5 0.0 0.8
20:34 14.7 13.8 94 1021.5 0.0 SW 4.5 0.0 0.8
20:35 14.7 13.8 94 1021.6 0.0 SW 2.2 0.0 0.8
20:36 14.7 13.8 94 1021.5 0.0 W 2.2 0.0 0.8
20:36 14.7 13.8 94 1021.5 0.0 W 2.2 0.0 0.8
20:37 14.7 13.8 94 1021.6 0.0 W 2.2 0.0 0.8
20:38 14.6 13.7 94 1021.5 3.1 NW 3.1 0.0 0.8
20:39 14.6 13.7 94 1021.5 1.6 W 3.1 0.0 0.8
20:40 14.6 13.8 95 1021.6 3.1 SW 5.4 0.0 0.8
20:41 14.6 13.8 95 1021.6 3.1 SW 5.4 0.0 0.8
20:42 14.6 13.8 95 1021.6 0.0 W 5.4 0.0 0.8
20:43 14.6 13.8 95 1021.6 0.0 SW 5.4 0.0 0.8
20:45 14.5 13.7 95 1021.6 0.0 SW 5.4 0.0 0.8
20:46 14.5 13.7 95 1021.8 0.0 W 5.4 0.0 0.8
20:47 14.5 13.9 96 1021.7 0.0 SW 5.4 0.0 0.8
20:48 14.5 13.9 96 1021.6 0.0 W 5.4 0.0 0.8
20:49 14.5 13.9 96 1021.7 0.0 W 5.4 0.0 0.8
20:49 14.5 13.9 96 1021.7 0.0 W 5.4 0.0 0.8
20:50 14.5 13.9 96 1021.7 0.0 SW 5.4 0.0 0.8
20:51 14.4 13.8 96 1021.7 0.0 SW 3.1 0.0 0.8
20:52 14.4 13.8 96 1021.8 0.0 SW 3.1 0.0 0.8
20:53 14.4 13.8 96 1021.7 0.0 W 3.1 0.0 0.8
20:54 14.3 13.7 96 1021.7 0.0 SW 0.0 0.0 0.8
20:55 14.3 13.7 96 1021.9 0.0 SW 0.0 0.0 0.8
20:56 14.3 13.8 97 1021.7 0.0 W 0.0 0.0 0.8
20:57 14.3 13.8 97 1021.9 0.0 W 0.0 0.0 0.8
20:58 14.2 13.7 97 1021.7 1.6 W 1.6 0.0 0.8
20:59 14.2 13.7 97 1021.8 2.2 W 2.2 0.0 0.8
21:00 14.2 13.7 97 1021.7 0.0 NW 2.2 0.0 0.8
21:02 14.2 13.7 97 1021.9 0.0 NW 2.2 0.0 0.8
21:03 14.2 13.7 97 1021.9 0.0 NW 2.2 0.0 0.8
21:04 14.2 13.7 97 1021.8 0.0 NW 2.2 0.0 0.8
21:04 14.2 13.7 97 1021.8 0.0 NW 2.2 0.0 0.8
21:05 14.2 13.7 97 1022.0 0.0 NW 2.2 0.0 0.8
21:07 14.2 13.7 97 1021.8 0.0 NW 2.2 0.0 0.8
21:07 14.2 13.7 97 1021.8 0.0 NW 2.2 0.0 0.8
21:08 14.0 13.7 98 1022.0 0.0 NW 2.2 0.0 0.8
21:10 14.0 13.7 98 1021.9 0.0 WNW 1.6 0.0 0.8
21:11 14.0 13.7 98 1021.9 0.0 W 0.0 0.0 0.8
21:11 14.0 13.7 98 1021.9 0.0 W 0.0 0.0 0.8
21:11 14.0 13.7 98 1021.9 0.0 W 0.0 0.0 0.8
21:13 13.9 13.6 98 1021.9 0.7 W 0.7 0.0 0.8
21:15 13.9 13.6 98 1022.0 0.0 W 0.7 0.0 0.8
21:16 13.8 13.5 98 1021.8 0.0 W 0.7 0.0 0.8
21:17 13.8 13.5 98 1021.9 0.0 SW 0.7 0.0 0.8
21:18 13.8 13.5 98 1021.9 0.0 W 0.7 0.0 0.8
21:19 13.8 13.7 99 1021.9 0.0 W 0.7 0.0 0.8
21:20 13.8 13.7 99 1021.9 0.0 W 0.7 0.0 0.8
21:21 13.7 13.6 99 1022.1 0.0 SW 0.7 0.0 0.8
21:22 13.7 13.6 99 1022.0 0.0 SW 0.7 0.0 0.8
21:23 13.7 13.6 99 1021.9 0.0 SW 0.7 0.0 0.8
21:24 13.7 13.6 99 1021.9 0.0 W 0.0 0.0 0.8
21:25 13.7 13.6 99 1022.1 0.0 W 0.0 0.0 0.8
21:26 13.6 13.5 99 1022.0 0.0 W 0.0 0.0 0.8
21:27 13.6 13.5 99 1022.0 0.0 SW 0.0 0.0 0.8
21:29 13.6 13.5 99 1021.9 0.0 W 0.0 0.0 0.8
21:30 13.6 13.5 99 1022.1 0.0 N 0.0 0.0 0.8
21:31 13.6 13.5 99 1021.9 0.0 W 0.0 0.0 0.8
21:32 13.6 13.5 99 1022.0 0.0 W 0.0 0.0 0.8
21:33 13.6 13.5 99 1021.9 0.0 W 0.0 0.0 0.8
21:34 13.6 13.5 99 1021.9 0.0 W 0.0 0.0 0.8
21:34 13.6 13.5 99 1021.9 0.0 W 0.0 0.0 0.8
21:35 13.6 13.5 99 1022.0 0.0 W 0.0 0.0 0.8
21:36 13.6 13.5 99 1022.0 0.0 NW 0.0 0.0 0.8
21:37 13.5 13.4 99 1021.9 0.0 NW 0.0 0.0 0.8
21:38 13.5 13.4 99 1022.0 0.0 NW 0.0 0.0 0.8
21:39 13.5 13.4 99 1021.9 0.0 NW 0.0 0.0 0.8
21:40 13.5 13.4 99 1021.9 0.0 SW 0.0 0.0 0.8
21:42 13.5 13.4 99 1022.0 0.0 W 0.0 0.0 0.8
21:43 13.5 13.4 99 1021.9 0.0 W 0.0 0.0 0.8
21:44 13.5 13.4 99 1022.0 0.0 W 0.0 0.0 0.8
21:45 13.5 13.4 99 1021.9 0.0 W 0.0 0.0 0.8
21:45 13.5 13.4 99 1021.9 0.0 W 0.0 0.0 0.8
21:46 13.5 13.4 99 1021.9 0.0 W 0.0 0.0 0.8
21:47 13.5 13.4 99 1021.9 0.0 W 0.0 0.0 0.8
21:48 13.5 13.4 99 1022.0 0.0 W 0.0 0.0 0.8
21:49 13.5 13.4 99 1022.0 0.0 W 0.0 0.0 0.8
21:51 13.4 13.3 99 1022.0 0.0 SW 0.0 0.0 0.8
21:51 13.4 13.3 99 1022.0 0.0 SW 0.0 0.0 0.8
21:52 13.4 13.3 99 1022.0 0.0 SW 0.0 0.0 0.8
21:53 13.4 13.3 99 1022.1 1.6 SW 1.6 0.0 0.8
21:54 13.4 13.3 99 1022.1 1.6 SW 1.6 0.0 0.8
21:56 13.4 13.3 99 1022.1 1.6 SW 1.6 0.0 0.8
21:57 13.4 13.3 99 1022.0 1.6 SW 1.6 0.0 0.8
21:57 13.4 13.3 99 1022.0 1.6 SW 1.6 0.0 0.8
21:58 13.4 13.3 99 1022.0 1.6 SW 1.6 0.0 0.8
22:00 13.4 13.3 99 1022.1 1.6 SW 1.6 0.0 0.8
22:01 13.4 13.3 99 1022.1 1.6 SW 1.6 0.0 0.8
22:02 13.4 13.3 99 1022.0 1.6 SW 1.6 0.0 0.8
22:02 13.4 13.3 99 1022.0 1.6 SW 1.6 0.0 0.8
22:03 13.4 13.3 99 1022.0 1.6 SW 1.6 0.0 0.8
22:04 13.4 13.3 99 1022.0 1.6 SW 1.6 0.0 0.8
22:05 13.4 13.3 99 1022.1 1.6 SW 1.6 0.0 0.8
22:06 13.4 13.3 99 1022.1 1.6 SW 1.6 0.0 0.8
22:08 13.3 13.2 99 1022.1 0.0 SW 1.6 0.0 0.8
22:08 13.3 13.2 99 1022.1 0.0 SW 1.6 0.0 0.8
22:09 13.3 13.2 99 1022.0 0.0 SW 1.6 0.0 0.8
22:10 13.3 13.2 99 1022.0 1.6 W 1.6 0.0 0.8
22:11 13.3 13.2 99 1022.0 0.0 SW 1.6 0.0 0.8
22:12 13.3 13.2 99 1022.0 0.0 W 1.6 0.0 0.8
22:13 13.3 13.2 99 1022.0 0.0 W 1.6 0.0 0.8
22:14 13.2 13.1 99 1022.2 0.0 W 2.2 0.0 0.8
22:16 13.3 13.2 99 1022.1 0.0 SW 2.2 0.0 0.8
22:17 13.2 13.1 99 1022.1 1.6 SW 2.2 0.0 0.8
22:17 13.2 13.1 99 1022.1 1.6 SW 2.2 0.0 0.8
22:19 13.2 13.1 99 1021.9 0.0 SW 2.2 0.0 0.8
22:20 13.2 13.1 99 1022.0 0.7 SW 2.2 0.0 0.8
22:21 13.2 13.1 99 1022.2 0.0 SW 2.2 0.0 0.8
22:22 13.2 13.1 99 1022.0 2.2 W 2.2 0.0 0.8
22:23 13.2 13.1 99 1022.0 0.0 W 2.2 0.0 0.8
22:24 13.2 13.1 99 1022.0 0.0 SW 2.2 0.0 0.8
22:24 13.2 13.1 99 1022.0 0.0 SW 2.2 0.0 0.8
22:25 13.2 13.1 99 1021.9 0.0 NW 2.2 0.0 0.8
22:26 13.2 13.1 99 1022.0 1.6 W 2.2 0.0 0.8
22:27 13.2 13.1 99 1022.0 0.0 W 2.2 0.0 0.8
22:28 13.2 13.1 99 1022.0 1.6 SW 2.2 0.0 0.8
22:29 13.2 13.1 99 1022.0 1.6 SW 2.2 0.0 0.8
22:30 13.2 13.1 99 1022.0 0.0 SW 2.2 0.0 0.8
22:32 13.1 13.0 99 1021.9 0.0 W 2.2 0.0 0.8
22:33 13.1 13.0 99 1022.0 3.1 SW 3.1 0.0 0.8
22:34 13.1 13.0 99 1022.0 0.0 SW 3.1 0.0 0.8
22:35 13.1 13.0 99 1022.1 0.0 W 3.1 0.0 0.8
22:35 13.1 13.0 99 1022.1 0.0 W 3.1 0.0 0.8
22:36 13.1 13.0 99 1022.1 0.0 SW 3.1 0.0 0.8
22:37 13.1 13.0 99 1022.0 0.0 SW 3.1 0.0 0.8
22:38 13.1 13.0 99 1022.0 0.0 W 3.1 0.0 0.8
22:38 13.1 13.0 99 1022.0 0.0 W 3.1 0.0 0.8
22:40 13.1 13.0 99 1022.1 0.0 SW 3.1 0.0 0.8
22:40 13.1 13.0 99 1022.1 0.0 SW 3.1 0.0 0.8
22:42 13.1 13.0 99 1022.0 0.0 W 3.1 0.0 0.8
22:44 13.1 13.0 99 1022.0 0.0 W 0.0 0.0 0.8
22:44 13.1 13.0 99 1022.0 0.0 W 0.0 0.0 0.8
22:46 13.0 12.9 99 1022.0 0.0 SW 0.0 0.0 0.8
22:48 13.0 12.9 99 1022.0 1.6 SW 1.6 0.0 0.8
22:48 13.0 12.9 99 1022.0 1.6 SW 1.6 0.0 0.8
22:49 13.0 12.9 99 1021.8 3.1 W 3.1 0.0 0.8
22:50 13.0 12.9 99 1021.9 1.6 S 3.1 0.0 0.8
22:51 13.0 12.9 99 1021.9 2.2 W 3.1 0.0 0.8
22:52 13.0 12.9 99 1022.0 1.6 SW 3.1 0.0 0.8
22:53 13.0 12.9 99 1021.9 1.6 NW 3.1 0.0 0.8
22:55 13.0 12.9 99 1021.9 0.0 SW 3.1 0.0 0.8
22:56 13.0 12.9 99 1022.0 0.0 W 3.1 0.0 0.8
22:57 13.0 12.9 99 1022.0 0.0 W 3.1 0.0 0.8
22:58 13.0 12.9 99 1021.9 0.0 W 3.1 0.0 0.8
22:58 13.0 12.9 99 1021.9 0.0 W 3.1 0.0 0.8
22:59 12.9 12.8 99 1021.9 0.0 SW 2.2 0.0 0.8
23:00 12.9 12.8 99 1021.8 0.0 SW 2.2 0.0 0.8
23:02 12.9 12.8 99 1021.8 0.0 SW 1.6 0.0 0.8
23:03 12.9 12.8 99 1021.8 0.0 SW 1.6 0.0 0.8
23:03 12.9 12.8 99 1021.8 0.0 SW 1.6 0.0 0.8
23:04 12.9 12.8 99 1021.8 0.0 SW 0.0 0.0 0.8
23:05 12.9 12.8 99 1022.0 0.0 SW 0.0 0.0 0.8
23:07 12.9 12.8 99 1021.7 0.0 SW 0.0 0.0 0.8
23:08 12.9 12.8 99 1021.8 0.0 SW 0.0 0.0 0.8
23:08 12.9 12.8 99 1021.8 0.0 SW 0.0 0.0 0.8
23:09 12.9 12.8 99 1021.8 0.0 SW 0.0 0.0 0.8
23:10 13.0 12.9 99 1022.0 5.4 W 5.4 0.0 0.8
23:10 13.0 12.9 99 1022.0 5.4 W 5.4 0.0 0.8
23:12 13.0 12.9 99 1021.8 3.1 NW 5.4 0.0 0.8
23:14 13.0 12.9 99 1021.8 0.0 W 5.4 0.0 0.8
23:14 13.0 12.9 99 1021.8 0.0 W 5.4 0.0 0.8
23:15 13.0 12.9 99 1021.8 0.0 SW 5.4 0.0 0.8
23:16 13.0 12.9 99 1021.7 0.0 SW 5.4 0.0 0.8
23:17 13.0 12.9 99 1021.9 0.0 W 5.4 0.0 0.8
23:19 13.0 12.9 99 1022.0 0.0 NW 5.4 0.0 0.8
23:20 13.0 12.9 99 1021.9 0.0 W 5.4 0.0 0.8
23:21 13.0 12.9 99 1021.8 0.0 W 3.1 0.0 0.8
23:21 13.0 12.9 99 1021.8 0.0 W 3.1 0.0 0.8
23:22 13.0 12.9 99 1021.9 0.0 NW 3.1 0.0 0.8
23:23 13.0 12.9 99 1021.8 0.0 SW 0.0 0.0 0.8
23:24 13.0 12.9 99 1021.9 0.0 W 0.0 0.0 0.8
23:25 12.9 12.8 99 1021.7 0.0 SW 0.0 0.0 0.8
23:26 13.0 12.9 99 1021.9 2.2 W 2.2 0.0 0.8
23:27 13.0 12.9 99 1022.0 0.0 NW 2.2 0.0 0.8
23:28 12.9 12.8 99 1021.9 0.0 W 2.2 0.0 0.8
23:30 12.9 12.8 99 1021.9 0.0 SW 2.2 0.0 0.8
23:31 12.9 12.8 99 1021.9 0.0 SW 2.2 0.0 0.8
23:31 12.9 12.8 99 1021.9 0.0 SW 2.2 0.0 0.8
23:32 12.9 12.8 99 1021.9 0.7 NW 2.2 0.0 0.8
23:33 12.9 12.8 99 1021.9 0.0 W 2.2 0.0 0.8
23:34 12.9 12.8 99 1021.9 0.0 SW 2.2 0.0 0.8
23:35 12.9 12.8 99 1022.1 0.0 SW 2.2 0.0 0.8
23:36 12.9 12.8 99 1022.0 0.0 NW 0.7 0.0 0.8
23:37 12.9 12.8 99 1021.9 0.0 W 0.7 0.0 0.8
23:38 12.9 12.8 99 1021.9 0.0 W 0.7 0.0 0.8
23:40 12.9 12.8 99 1022.0 0.0 SW 0.7 0.0 0.8
23:41 12.9 12.8 99 1021.8 0.0 SW 0.7 0.0 0.8
23:41 12.9 12.8 99 1021.8 0.0 SW 0.7 0.0 0.8
23:42 12.9 12.8 99 1022.0 1.6 NW 1.6 0.0 0.8
23:43 12.9 12.8 99 1022.0 0.0 NW 1.6 0.0 0.8
23:44 12.9 12.8 99 1022.0 0.0 W 1.6 0.0 0.8
23:45 12.9 12.8 99 1021.9 0.0 SW 1.6 0.0 0.8
23:46 12.9 12.8 99 1021.9 0.0 W 1.6 0.0 0.8
23:47 12.9 12.8 99 1022.0 0.0 NW 1.6 0.0 0.8
23:49 12.9 12.8 99 1021.9 0.0 NW 1.6 0.0 0.8
23:50 12.9 12.8 99 1021.9 0.0 NW 1.6 0.0 0.8
23:50 12.9 12.8 99 1021.9 0.0 NW 1.6 0.0 0.8
23:51 12.9 12.8 99 1022.0 0.0 NW 1.6 0.0 0.8
23:52 12.9 12.8 99 1021.9 0.0 NW 1.6 0.0 0.8
23:53 12.9 12.8 99 1022.1 0.0 NW 1.6 0.0 0.8
23:54 12.9 12.8 99 1021.9 0.0 NW 2.2 0.0 0.8
23:55 12.9 12.8 99 1021.9 0.7 NW 2.2 0.0 0.8
23:56 12.9 12.8 99 1021.8 0.0 W 2.2 0.0 0.8
23:57 12.9 12.8 99 1021.8 0.0 NW 2.2 0.0 0.8
23:57 12.9 12.8 99 1021.8 0.0 NW 2.2 0.0 0.8
23:59 12.9 12.8 99 1021.8 0.0 SW 2.2 0.0 0.8

UK - WEATHER STATION TOPSITES - UK World Weather Websites

This is a private weather station, never base important decisions or events on data from this weather station. Although every effort has been made to make the data as accurate as possible it does not meet MetOffice standards. It is proved as a guide of local weather conditions. We accept no liability for any loss which may arise from use of the data.

Copyright © Carnkie Weather 2009 - 2017.